CW9600 Weather Reports


time (UTC)temp
C
wind
direction
speed
KPH
gust
KPH
rain 1hr
cm
rain 24hr
cm
rain mn
cm
humidity
%
barometer
mb
20260502130748 17 314 9.7 17.7 0.00 0.00 0.00 63 1022.7
20260502130648 17 308 9.7 17.7 0.00 0.00 0.00 63 1022.7
20260502130548 17 301 9.7 17.7 0.00 0.00 0.00 63 1022.7
20260502130449 17 296 9.7 17.7 0.00 0.00 0.00 62 1022.7
20260502130348 17 289 8.0 17.7 0.00 0.00 0.00 62 1022.7
20260502130248 17 281 8.0 17.7 0.00 0.00 0.00 63 1022.7
20260502130211 17 276 8.0 17.7 0.00 0.00 0.00 63 1022.7
20260502123748 17 291 9.7 19.3 0.00 0.00 0.00 63 1022.7
20260502123648 17 292 11.3 19.3 0.00 0.00 0.00 63 1022.7
20260502123609 17 294 11.3 19.3 0.00 0.00 0.00 63 1022.7
20260502123448 17 294 11.3 19.3 0.00 0.00 0.00 66 1022.7
20260502123409 17 292 11.3 19.3 0.00 0.00 0.00 66 1022.7
20260502123310 16 293 11.3 19.3 0.00 0.00 0.00 66 1022.7
20260502123148 16 294 11.3 19.3 0.00 0.00 0.00 64 1022.7
20260502123049 16 290 11.3 20.9 0.00 0.00 0.00 64 1022.7
20260502122948 16 288 11.3 20.9 0.00 0.00 0.00 66 1022.7
20260502122909 16 284 11.3 20.9 0.00 0.00 0.00 66 1022.7
20260502122748 16 277 12.9 20.9 0.00 0.00 0.00 67 1022.7
20260502122648 16 281 12.9 20.9 0.00 0.00 0.00 65 1022.7
20260502122610 16 281 12.9 20.9 0.00 0.00 0.00 65 1022.7
20260502122448 16 280 12.9 20.9 0.00 0.00 0.00 65 1022.7
20260502122348 16 282 12.9 24.1 0.00 0.00 0.00 64 1022.7
20260502122248 16 281 12.9 24.1 0.00 0.00 0.00 64 1022.7
20260502122148 16 276 12.9 24.1 0.00 0.00 0.00 65 1022.7
20260502122048 16 274 12.9 24.1 0.00 0.00 0.00 64 1022.7
20260502121949 16 271 14.5 24.1 0.00 0.00 0.00 66 1022.7
20260502121849 16 270 12.9 24.1 0.00 0.00 0.00 63 1022.7
20260502121749 16 271 14.5 24.1 0.00 0.00 0.00 64 1022.7
20260502121648 17 263 14.5 24.1 0.00 0.00 0.00 64 1022.7
20260502121549 17 259 14.5 24.1 0.00 0.00 0.00 64 1022.7
20260502121448 17 256 14.5 24.1 0.00 0.00 0.00 66 1022.7
20260502121348 17 252 14.5 24.1 0.00 0.00 0.00 66 1022.7
20260502121310 17 251 14.5 24.1 0.00 0.00 0.00 66 1022.7
20260502121148 16 253 14.5 24.1 0.00 0.00 0.00 68 1022.7
20260502121048 16 255 14.5 24.1 0.00 0.00 0.00 68 1022.7
20260502120948 16 257 14.5 24.1 0.00 0.00 0.00 67 1022.7
20260502120848 16 261 14.5 24.1 0.00 0.00 0.00 68 1022.7
20260502120809 16 263 14.5 24.1 0.00 0.00 0.00 68 1022.7
20260502120649 16 260 14.5 24.1 0.00 0.00 0.00 67 1022.7
20260502120548 16 257 14.5 24.1 0.00 0.00 0.00 67 1022.7
20260502120449 16 254 14.5 24.1 0.00 0.00 0.00 67 1022.7
20260502120409 16 252 14.5 24.1 0.00 0.00 0.00 67 1022.7
20260502120248 16 245 14.5 22.5 0.00 0.00 0.00 66 1022.7
20260502120148 16 240 14.5 22.5 0.00 0.00 0.00 66 1022.7
20260502115848 16 227 14.5 22.5 0.00 0.00 0.00 67 1022.7
20260502115748 16 224 14.5 22.5 0.00 0.00 0.00 67 1022.7
20260502115648 16 225 14.5 22.5 0.00 0.00 0.00 67 1022.7
20260502115548 16 227 14.5 22.5 0.00 0.00 0.00 67 1022.7
20260502115509 16 228 14.5 22.5 0.00 0.00 0.00 67 1022.7
20260502115348 16 231 16.1 24.1 0.00 0.00 0.00 68 1022.7
20260502115248 16 234 14.5 24.1 0.00 0.00 0.00 67 1022.7
20260502115209 16 236 14.5 24.1 0.00 0.00 0.00 67 1022.7
20260502115048 16 242 14.5 24.1 0.00 0.00 0.00 67 1022.7
20260502114948 16 245 14.5 24.1 0.00 0.00 0.00 66 1022.7
20260502114909 16 247 14.5 24.1 0.00 0.00 0.00 66 1022.7
20260502114748 16 248 14.5 24.1 0.00 0.00 0.00 68 1022.7
20260502114709 16 250 14.5 24.1 0.00 0.00 0.00 68 1022.7
20260502114548 16 250 14.5 24.1 0.00 0.00 0.00 66 1022.7
20260502114449 16 251 14.5 24.1 0.00 0.00 0.00 68 1022.7
20260502114410 16 252 12.9 24.1 0.00 0.00 0.00 68 1022.7
20260502114309 16 254 12.9 22.5 0.00 0.00 0.00 67 1022.7
20260502114149 16 253 12.9 22.5 0.00 0.00 0.00 68 1022.7
20260502114048 16 249 12.9 22.5 0.00 0.00 0.00 68 1022.7
20260502114009 16 246 12.9 22.5 0.00 0.00 0.00 68 1022.7
20260502113848 16 248 12.9 22.5 0.00 0.00 0.00 68 1022.7
20260502113810 16 248 12.9 22.5 0.00 0.00 0.00 68 1022.7
20260502113648 16 244 12.9 22.5 0.00 0.00 0.00 69 1022.7
20260502113548 16 242 11.3 17.7 0.00 0.00 0.00 69 1022.7
20260502113448 16 241 12.9 22.5 0.00 0.00 0.00 70 1022.7
20260502113348 16 242 12.9 22.5 0.00 0.00 0.00 69 1022.7
20260502113249 16 244 12.9 22.5 0.00 0.00 0.00 69 1022.7
20260502113148 16 251 12.9 22.5 0.00 0.00 0.00 69 1022.7
20260502113048 15 255 12.9 22.5 0.00 0.00 0.00 70 1022.7
20260502112949 15 258 12.9 22.5 0.00 0.00 0.00 69 1022.7
20260502112848 15 261 12.9 22.5 0.00 0.00 0.00 70 1022.7
20260502112748 15 265 12.9 22.5 0.00 0.00 0.00 70 1022.7
20260502112648 15 271 12.9 22.5 0.00 0.00 0.00 69 1022.7
20260502112548 15 275 12.9 22.5 0.00 0.00 0.00 69 1022.7
20260502112449 15 277 12.9 22.5 0.00 0.00 0.00 70 1022.7
20260502112348 15 275 12.9 22.5 0.00 0.00 0.00 69 1022.7
20260502112248 15 272 12.9 22.5 0.00 0.00 0.00 69 1022.7
20260502112148 15 268 12.9 22.5 0.00 0.00 0.00 69 1022.7
20260502112048 15 266 12.9 22.5 0.00 0.00 0.00 70 1022.7
20260502112009 15 265 12.9 19.3 0.00 0.00 0.00 70 1022.7
20260502111848 15 265 12.9 19.3 0.00 0.00 0.00 70 1022.7
20260502111748 15 265 12.9 19.3 0.00 0.00 0.00 71 1022.7
20260502111648 15 266 12.9 19.3 0.00 0.00 0.00 70 1022.7
20260502111548 15 265 11.3 19.3 0.00 0.00 0.00 69 1022.7
20260502111448 15 269 11.3 19.3 0.00 0.00 0.00 70 1022.7
20260502111409 15 271 11.3 19.3 0.00 0.00 0.00 70 1022.7
20260502111248 15 280 11.3 19.3 0.00 0.00 0.00 71 1022.7
20260502111148 15 279 11.3 19.3 0.00 0.00 0.00 71 1022.7
20260502111048 15 283 12.9 20.9 0.00 0.00 0.00 70 1022.7
20260502110948 15 286 12.9 20.9 0.00 0.00 0.00 70 1022.7
20260502110848 15 286 12.9 20.9 0.00 0.00 0.00 71 1022.7
20260502110748 15 289 14.5 20.9 0.00 0.00 0.00 71 1022.7
20260502110648 15 287 14.5 22.5 0.00 0.00 0.00 71 1022.7
20260502110548 15 284 14.5 25.7 0.00 0.00 0.00 71 1022.7
20260502110449 15 281 14.5 25.7 0.00 0.00 0.00 72 1022.7
20260502110409 15 278 14.5 25.7 0.00 0.00 0.00 72 1022.7
20260502110248 15 277 14.5 25.7 0.00 0.00 0.00 72 1022.7
20260502110148 15 280 14.5 25.7 0.00 0.00 0.00 72 1022.7
20260502110109 15 281 14.5 25.7 0.00 0.00 0.00 72 1022.7
20260502105948 15 280 14.5 25.7 0.00 0.00 0.00 72 1022.7
20260502105849 15 281 14.5 25.7 0.00 0.00 0.00 71 1022.7
20260502105809 15 280 14.5 25.7 0.00 0.00 0.00 71 1022.7
20260502105648 15 277 12.9 25.7 0.00 0.00 0.00 72 1022.7
20260502105548 15 280 12.9 20.9 0.00 0.00 0.00 72 1022.7
20260502105448 15 283 12.9 20.9 0.00 0.00 0.00 72 1022.7
20260502105350 15 285 12.9 20.9 0.00 0.00 0.00 72 1022.7
20260502105310 15 285 11.3 20.9 0.00 0.00 0.00 72 1022.7
20260502105148 15 282 11.3 20.9 0.00 0.00 0.00 72 1022.7
20260502105048 15 275 11.3 20.9 0.00 0.00 0.00 73 1022.7
20260502104948 15 268 9.7 17.7 0.00 0.00 0.00 74 1022.7
20260502104848 15 258 11.3 17.7 0.00 0.00 0.00 74 1022.7
20260502104748 15 252 11.3 17.7 0.00 0.00 0.00 74 1022.7
20260502104649 15 249 11.3 24.1 0.00 0.00 0.00 73 1022.7
20260502104548 15 248 12.9 24.1 0.00 0.00 0.00 73 1022.7
20260502104449 15 247 12.9 24.1 0.00 0.00 0.00 74 1022.7
20260502104348 15 247 12.9 24.1 0.00 0.00 0.00 74 1022.7
20260502104248 15 247 12.9 24.1 0.00 0.00 0.00 73 1022.7
20260502104148 15 252 14.5 24.1 0.00 0.00 0.00 73 1022.7
20260502104109 14 256 14.5 24.1 0.00 0.00 0.00 73 1022.7
20260502103949 15 262 14.5 24.1 0.00 0.00 0.00 73 1022.7
20260502103909 15 265 14.5 24.1 0.00 0.00 0.00 73 1022.7
20260502103809 15 269 14.5 24.1 0.00 0.00 0.00 73 1022.7
20260502103649 15 272 12.9 20.9 0.00 0.00 0.00 74 1022.7
20260502103548 15 276 14.5 20.9 0.00 0.00 0.00 73 1022.7
20260502103449 14 279 14.5 20.9 0.00 0.00 0.00 73 1022.7
20260502103410 14 278 14.5 20.9 0.00 0.00 0.00 73 1022.7
20260502103248 14 271 14.5 22.5 0.00 0.00 0.00 73 1022.7
20260502103148 14 265 14.5 25.7 0.00 0.00 0.00 74 1022.7
20260502103049 14 263 14.5 25.7 0.00 0.00 0.00 73 1022.7
20260502103009 14 263 14.5 25.7 0.00 0.00 0.00 73 1022.7
20260502102909 14 260 14.5 25.7 0.00 0.00 0.00 73 1022.7
20260502102748 14 261 14.5 25.7 0.00 0.00 0.00 74 1022.7
20260502102709 14 265 14.5 25.7 0.00 0.00 0.00 74 1022.7
20260502102610 14 267 14.5 25.7 0.00 0.00 0.00 74 1022.7
20260502102448 14 267 14.5 25.7 0.00 0.00 0.00 73 1022.7
20260502102348 14 269 14.5 25.7 0.00 0.00 0.00 75 1022.7
20260502102309 14 272 12.9 25.7 0.00 0.00 0.00 75 1022.7
20260502102149 14 277 12.9 19.3 0.00 0.00 0.00 75 1022.7
20260502102048 14 276 12.9 17.7 0.00 0.00 0.00 75 1022.7
20260502101948 14 277 12.9 17.7 0.00 0.00 0.00 75 1022.7
20260502101848 14 279 12.9 17.7 0.00 0.00 0.00 74 1022.7
20260502101810 14 280 12.9 17.7 0.00 0.00 0.00 74 1022.7
20260502101649 14 280 14.5 20.9 0.00 0.00 0.00 75 1022.7
20260502101549 14 279 14.5 20.9 0.00 0.00 0.00 75 1022.7
20260502101449 14 281 12.9 20.9 0.00 0.00 0.00 74 1022.7
20260502101409 14 284 12.9 20.9 0.00 0.00 0.00 74 1022.7
20260502101248 14 286 12.9 20.9 0.00 0.00 0.00 75 1022.7
20260502101148 14 289 12.9 20.9 0.00 0.00 0.00 75 1022.7
20260502101049 14 293 12.9 20.9 0.00 0.00 0.00 76 1022.7
20260502100948 14 292 12.9 20.9 0.00 0.00 0.00 76 1022.7
20260502100848 14 295 12.9 20.9 0.00 0.00 0.00 75 1022.7
20260502100748 14 294 12.9 20.9 0.00 0.00 0.00 75 1022.7
20260502100648 14 293 11.3 20.9 0.00 0.00 0.00 75 1022.7
20260502100609 14 292 11.3 19.3 0.00 0.00 0.00 75 1022.7
20260502100449 14 293 11.3 19.3 0.00 0.00 0.00 76 1022.7
20260502100410 14 291 11.3 19.3 0.00 0.00 0.00 76 1022.7
20260502100249 13 288 11.3 19.3 0.00 0.00 0.00 77 1022.7
20260502100148 13 284 11.3 19.3 0.00 0.00 0.00 76 1022.7
20260502091448 12 281 14.5 19.3 0.00 0.00 0.00 79 1022.7
20260502091348 12 280 14.5 19.3 0.00 0.00 0.00 78 1022.7
20260502091249 12 283 14.5 19.3 0.00 0.00 0.00 78 1022.7
20260502091149 12 284 14.5 19.3 0.00 0.00 0.00 79 1022.7
20260502091048 12 284 14.5 19.3 0.00 0.00 0.00 78 1022.7
20260502090948 12 282 14.5 20.9 0.00 0.00 0.00 78 1022.7
20260502090848 12 280 14.5 20.9 0.00 0.00 0.00 78 1022.7
20260502090809 12 280 14.5 20.9 0.00 0.00 0.00 78 1022.7
20260502090648 12 278 12.9 20.9 0.00 0.00 0.00 79 1022.7
20260502090549 12 278 12.9 20.9 0.00 0.00 0.00 79 1022.7
20260502090448 12 276 12.9 20.9 0.00 0.00 0.00 78 1022.7
20260502090409 12 274 12.9 20.9 0.00 0.00 0.00 78 1022.7
20260502090309 12 271 12.9 20.9 0.00 0.00 0.00 78 1022.7
20260502090148 12 269 12.9 20.9 0.00 0.00 0.00 78 1022.7
20260502071448 12 280 11.3 16.1 0.00 0.00 0.00 83 1022.7
20260502071348 12 278 11.3 16.1 0.00 0.00 0.00 84 1022.7
20260502071248 12 278 11.3 16.1 0.00 0.00 0.00 84 1022.7
20260502071148 12 278 11.3 16.1 0.00 0.00 0.00 83 1022.7
20260502071109 11 278 11.3 16.1 0.00 0.00 0.00 83 1022.7
20260502070948 11 278 11.3 16.1 0.00 0.00 0.00 84 1022.7
20260502070848 11 279 11.3 17.7 0.00 0.00 0.00 84 1022.7
20260502070748 11 281 12.9 17.7 0.00 0.00 0.00 83 1022.7
20260502070648 11 284 12.9 17.7 0.00 0.00 0.00 83 1022.7
20260502070548 11 286 12.9 17.7 0.00 0.00 0.00 84 1022.7
20260502070448 11 287 12.9 17.7 0.00 0.00 0.00 84 1022.7
20260502070348 11 289 14.5 17.7 0.00 0.00 0.00 84 1022.7
20260502070248 11 291 14.5 17.7 0.00 0.00 0.00 84 1022.7
20260502070148 11 292 14.5 17.7 0.00 0.00 0.00 84 1022.7
20260502070048 11 292 14.5 19.3 0.00 0.00 0.00 84 1022.7
20260502070010 11 292 14.5 19.3 0.00 0.00 0.00 84 1022.7
20260502065850 11 292 14.5 19.3 0.00 0.00 0.00 84 1022.7
20260502065750 11 292 12.9 19.3 0.00 0.00 0.00 84 1022.7
20260502065648 11 292 12.9 19.3 0.00 0.00 0.00 84 1022.7
20260502065548 11 292 12.9 19.3 0.00 0.00 0.00 84 1022.7
20260502065448 11 292 12.9 19.3 0.00 0.00 0.00 84 1022.7
20260502065349 11 291 12.9 19.3 0.00 0.00 0.00 84 1022.7
20260502065248 11 291 12.9 19.3 0.00 0.00 0.00 84 1022.7
20260502065209 11 292 11.3 19.3 0.00 0.00 0.00 84 1022.7
20260502065109 11 293 11.3 17.7 0.00 0.00 0.00 84 1022.7
20260502064948 11 296 11.3 17.7 0.00 0.00 0.00 84 1022.7
20260502064910 11 296 11.3 17.7 0.00 0.00 0.00 84 1022.7
20260502064748 11 298 11.3 17.7 0.00 0.00 0.00 84 1022.7
20260502064710 11 297 11.3 19.3 0.00 0.00 0.00 84 1022.7
20260502064548 11 297 11.3 19.3 0.00 0.00 0.00 85 1022.7
20260502064509 11 298 11.3 19.3 0.00 0.00 0.00 85 1022.7
20260502064348 11 300 11.3 19.3 0.00 0.00 0.00 85 1022.7
20260502064248 11 302 11.3 19.3 0.00 0.00 0.00 85 1022.7
20260502064209 11 302 12.9 19.3 0.00 0.00 0.00 85 1022.7
20260502064049 11 301 12.9 19.3 0.00 0.00 0.00 85 1022.7
20260502063949 11 300 12.9 19.3 0.00 0.00 0.00 85 1022.7
20260502063909 11 300 12.9 19.3 0.00 0.00 0.00 85 1022.7
20260502063809 11 301 12.9 19.3 0.00 0.00 0.00 85 1022.7
20260502063648 11 302 12.9 17.7 0.00 0.00 0.00 86 1022.7
20260502063548 11 302 12.9 17.7 0.00 0.00 0.00 85 1022.7
20260502063449 11 301 12.9 17.7 0.00 0.00 0.00 85 1022.7
20260502063348 11 300 12.9 17.7 0.00 0.00 0.00 85 1022.7
20260502063248 11 300 12.9 17.7 0.00 0.00 0.00 85 1022.7
20260502063148 11 301 12.9 17.7 0.00 0.00 0.00 85 1022.7
20260502063048 11 301 12.9 17.7 0.00 0.00 0.00 86 1022.7
20260502062948 11 300 11.3 17.7 0.00 0.00 0.00 86 1022.7
20260502062848 11 302 12.9 17.7 0.00 0.00 0.00 86 1022.7
20260502062809 11 302 12.9 17.7 0.00 0.00 0.00 86 1022.7
20260502062648 11 304 12.9 20.9 0.00 0.00 0.00 86 1022.7
20260502062548 11 306 12.9 20.9 0.00 0.00 0.00 86 1022.7
20260502062448 11 307 12.9 20.9 0.00 0.00 0.00 86 1022.7
20260502062348 11 308 12.9 20.9 0.00 0.00 0.00 86 1022.7
20260502062248 11 309 12.9 20.9 0.00 0.00 0.00 86 1022.7
20260502062148 11 310 12.9 20.9 0.00 0.00 0.00 86 1022.7
20260502062109 11 310 12.9 20.9 0.00 0.00 0.00 86 1022.7
20260502061948 11 313 12.9 20.9 0.00 0.00 0.00 86 1022.7
20260502061848 11 314 12.9 20.9 0.00 0.00 0.00 86 1022.7
20260502061748 11 314 11.3 20.9 0.00 0.00 0.00 87 1022.7
20260502061649 11 311 11.3 17.7 0.00 0.00 0.00 87 1022.7
20260502061548 11 310 11.3 16.1 0.00 0.00 0.00 87 1022.7
20260502061448 11 310 11.3 16.1 0.00 0.00 0.00 87 1022.7
20260502061348 11 310 11.3 16.1 0.00 0.00 0.00 87 1022.7
20260502061248 11 311 11.3 16.1 0.00 0.00 0.00 87 1022.7
20260502061149 11 312 11.3 16.1 0.00 0.00 0.00 87 1022.7
20260502061048 11 313 11.3 16.1 0.00 0.00 0.00 87 1022.7
20260502060948 11 314 11.3 16.1 0.00 0.00 0.00 87 1022.7
20260502060848 11 315 11.3 16.1 0.00 0.00 0.00 87 1022.7
20260502060748 11 316 11.3 16.1 0.00 0.00 0.00 87 1022.7
20260502060648 11 317 11.3 16.1 0.00 0.00 0.00 87 1022.7
20260502060609 11 318 11.3 16.1 0.00 0.00 0.00 87 1022.7
20260502060449 11 318 11.3 16.1 0.00 0.00 0.00 87 1022.7
20260502060348 11 319 11.3 16.1 0.00 0.00 0.00 87 1022.7
20260502060309 11 319 11.3 16.1 0.00 0.00 0.00 87 1022.7
20260502060210 11 319 11.3 16.1 0.00 0.00 0.00 88 1022.7
20260502060048 11 316 11.3 16.1 0.00 0.00 0.00 88 1022.7
20260502055948 11 315 11.3 16.1 0.00 0.00 0.00 88 1022.7
20260502055849 11 314 11.3 16.1 0.00 0.00 0.00 88 1022.7
20260502055748 11 313 11.3 16.1 0.00 0.00 0.00 88 1022.7
20260502055649 11 313 11.3 16.1 0.00 0.00 0.00 88 1022.7
20260502055548 11 312 9.7 16.1 0.00 0.00 0.00 89 1022.7
20260502055449 11 311 9.7 16.1 0.00 0.00 0.00 89 1022.7
20260502055348 11 310 9.7 14.5 0.00 0.00 0.00 89 1022.7
20260502055309 11 309 9.7 12.9 0.00 0.00 0.00 89 1022.7
20260502055209 11 307 9.7 12.9 0.00 0.00 0.00 89 1022.7
20260502055048 11 306 9.7 12.9 0.00 0.00 0.00 90 1022.7
20260502054948 11 304 9.7 12.9 0.00 0.00 0.00 90 1022.7
20260502054849 11 304 9.7 12.9 0.00 0.00 0.00 90 1022.7
20260502054748 10 304 9.7 12.9 0.00 0.00 0.00 90 1022.7
20260502054649 10 304 9.7 12.9 0.00 0.00 0.00 90 1022.7
20260502054548 10 305 9.7 12.9 0.00 0.00 0.00 89 1022.7
20260502054448 10 306 9.7 12.9 0.00 0.00 0.00 89 1022.7
20260502054348 10 307 9.7 12.9 0.00 0.00 0.00 89 1022.7
20260502054248 10 307 11.3 12.9 0.00 0.00 0.00 89 1022.7
20260502054149 10 308 11.3 12.9 0.00 0.00 0.00 89 1022.7
20260502054048 10 310 9.7 12.9 0.00 0.00 0.00 89 1022.7
20260502053948 10 312 9.7 14.5 0.00 0.00 0.00 89 1022.7
20260502053848 10 312 9.7 14.5 0.00 0.00 0.00 89 1022.7
20260502053748 10 312 11.3 14.5 0.00 0.00 0.00 89 1022.7
20260502053648 10 312 11.3 14.5 0.00 0.00 0.00 89 1022.7
20260502053548 10 312 11.3 14.5 0.00 0.00 0.00 89 1022.7
20260502053510 10 312 11.3 14.5 0.00 0.00 0.00 89 1022.7
20260502053348 10 310 11.3 16.1 0.00 0.00 0.00 90 1022.7
20260502053309 10 309 11.3 16.1 0.00 0.00 0.00 90 1022.7
20260502053149 10 308 11.3 16.1 0.00 0.00 0.00 90 1022.7
20260502053048 10 307 11.3 16.1 0.00 0.00 0.00 90 1022.7
20260502052949 10 306 11.3 16.1 0.00 0.00 0.00 90 1022.7
20260502052848 10 305 12.9 16.1 0.00 0.00 0.00 90 1022.7
20260502052809 10 305 12.9 16.1 0.00 0.00 0.00 90 1022.7
20260502052648 10 303 12.9 17.7 0.00 0.00 0.00 90 1022.7
20260502052548 10 302 12.9 17.7 0.00 0.00 0.00 90 1022.7
20260502052448 10 301 12.9 17.7 0.00 0.00 0.00 90 1022.7
20260502052348 10 301 12.9 17.7 0.00 0.00 0.00 90 1022.7
20260502052248 10 300 12.9 17.7 0.00 0.00 0.00 91 1022.7
20260502052148 10 300 12.9 17.7 0.00 0.00 0.00 90 1022.7
20260502052048 10 299 12.9 17.7 0.00 0.00 0.00 91 1022.7
20260502051949 10 298 12.9 17.7 0.00 0.00 0.00 91 1022.7
20260502051910 10 297 12.9 17.7 0.00 0.00 0.00 91 1022.7
20260502051809 10 296 12.9 17.7 0.00 0.00 0.00 91 1022.7
20260502051648 10 296 12.9 17.7 0.00 0.00 0.00 91 1022.7
20260502051548 10 295 12.9 17.7 0.00 0.00 0.00 91 1022.7
20260502051448 10 295 12.9 17.7 0.00 0.00 0.00 91 1022.7
20260502051410 10 294 12.9 17.7 0.00 0.00 0.00 91 1022.7
20260502051310 10 293 12.9 17.7 0.00 0.00 0.00 91 1022.7
20260502051148 10 292 12.9 17.7 0.00 0.00 0.00 91 1022.7
20260502051048 10 292 12.9 17.7 0.00 0.00 0.00 91 1022.7
20260502050948 10 291 12.9 17.7 0.00 0.00 0.00 91 1022.7
20260502050848 10 292 12.9 17.7 0.00 0.00 0.00 91 1022.7
20260502050748 10 291 12.9 17.7 0.00 0.00 0.00 91 1022.7
20260502050648 10 292 12.9 17.7 0.00 0.00 0.00 91 1022.7
20260502050548 10 292 12.9 17.7 0.00 0.00 0.00 91 1022.7
20260502050448 10 293 12.9 17.7 0.00 0.00 0.00 91 1022.7
20260502050348 10 293 12.9 17.7 0.00 0.00 0.00 91 1022.7
20260502050248 10 292 12.9 17.7 0.00 0.00 0.00 91 1022.7
20260502050148 10 292 12.9 17.7 0.00 0.00 0.00 91 1022.7
20260502050048 10 291 12.9 16.1 0.00 0.00 0.00 92 1022.7
20260502045949 10 290 11.3 16.1 0.00 0.00 0.00 92 1022.7
20260502045848 10 289 11.3 16.1 0.00 0.00 0.00 92 1022.7
20260502045748 10 289 11.3 16.1 0.00 0.00 0.00 92 1022.7
20260502045649 10 289 11.3 16.1 0.00 0.00 0.00 92 1022.7
20260502045549 10 288 11.3 16.1 0.00 0.00 0.00 92 1022.7
20260502045509 10 288 11.3 14.5 0.00 0.00 0.00 92 1022.7
20260502045348 10 290 11.3 14.5 0.00 0.00 0.00 92 1022.7
20260502045248 10 292 11.3 14.5 0.00 0.00 0.00 92 1022.7
20260502045148 10 294 11.3 14.5 0.00 0.00 0.00 92 1022.7
20260502045049 10 296 11.3 14.5 0.00 0.00 0.00 92 1022.7
20260502044949 10 299 11.3 14.5 0.00 0.00 0.00 91 1022.7
20260502044909 10 300 11.3 14.5 0.00 0.00 0.00 91 1022.7
20260502044748 10 302 11.3 14.5 0.00 0.00 0.00 91 1022.7
20260502044648 10 304 11.3 14.5 0.00 0.00 0.00 91 1022.7
20260502044548 9 305 11.3 14.5 0.00 0.00 0.00 91 1022.7
20260502044448 9 307 11.3 14.5 0.00 0.00 0.00 91 1022.7
20260502044349 9 308 11.3 14.5 0.00 0.00 0.00 91 1022.7
20260502044249 9 309 9.7 14.5 0.00 0.00 0.00 91 1022.7
20260502044150 9 310 9.7 14.5 0.00 0.00 0.00 91 1022.7
20260502044048 9 311 9.7 14.5 0.00 0.00 0.00 91 1022.7
20260502043948 9 312 9.7 14.5 0.00 0.00 0.00 91 1022.7
20260502043849 10 313 11.3 14.5 0.00 0.00 0.00 91 1022.7
20260502043749 10 314 11.3 16.1 0.00 0.00 0.00 91 1022.7
20260502043648 10 314 11.3 16.1 0.00 0.00 0.00 90 1022.7
20260502043548 10 314 11.3 16.1 0.00 0.00 0.00 90 1022.7
20260502043448 10 315 11.3 16.1 0.00 0.00 0.00 90 1022.7
20260502043348 10 315 11.3 16.1 0.00 0.00 0.00 90 1022.7
20260502043248 10 314 11.3 16.1 0.00 0.00 0.00 90 1022.7
20260502043148 10 314 11.3 16.1 0.00 0.00 0.00 90 1022.7
20260502043050 10 314 11.3 16.1 0.00 0.00 0.00 90 1022.7
20260502042948 10 313 11.3 16.1 0.00 0.00 0.00 90 1022.7
20260502042848 10 313 9.7 16.1 0.00 0.00 0.00 90 1022.7
20260502042809 10 313 9.7 12.9 0.00 0.00 0.00 90 1022.7
20260502042648 10 313 9.7 12.9 0.00 0.00 0.00 90 1022.7
20260502042609 10 313 9.7 12.9 0.00 0.00 0.00 90 1022.7
20260502042510 10 314 9.7 12.9 0.00 0.00 0.00 90 1022.7
20260502042348 10 314 9.7 12.9 0.00 0.00 0.00 90 1022.7
20260502042248 10 315 9.7 12.9 0.00 0.00 0.00 90 1022.7
20260502042149 10 315 9.7 12.9 0.00 0.00 0.00 90 1022.7
20260502042048 10 316 9.7 12.9 0.00 0.00 0.00 90 1022.7
20260502041948 10 317 9.7 12.9 0.00 0.00 0.00 90 1022.7
20260502041909 10 317 9.7 12.9 0.00 0.00 0.00 90 1022.7
20260502041748 10 316 9.7 12.9 0.00 0.00 0.00 90 1022.7
20260502041649 10 316 9.7 12.9 0.00 0.00 0.00 90 1022.7
20260502041548 10 316 9.7 12.9 0.00 0.00 0.00 90 1022.7
20260502041448 10 315 9.7 12.9 0.00 0.00 0.00 90 1022.7
20260502041348 10 315 9.7 12.9 0.00 0.00 0.00 90 1022.7
20260502041248 10 314 9.7 12.9 0.00 0.00 0.00 89 1022.7
20260502041148 10 314 9.7 11.3 0.00 0.00 0.00 89 1022.7
20260502041111 10 314 9.7 11.3 0.00 0.00 0.00 89 1022.7
20260502040948 10 314 9.7 11.3 0.00 0.00 0.00 89 1022.7
20260502040848 10 314 9.7 11.3 0.00 0.00 0.00 89 1022.7
20260502040748 10 314 9.7 11.3 0.00 0.00 0.00 89 1022.7
20260502040709 10 315 9.7 11.3 0.00 0.00 0.00 89 1022.7
20260502040609 10 315 9.7 11.3 0.00 0.00 0.00 89 1022.7
20260502040448 10 316 9.7 11.3 0.00 0.00 0.00 88 1022.7
20260502040348 10 316 9.7 11.3 0.00 0.00 0.00 89 1022.7
20260502040248 10 317 9.7 11.3 0.00 0.00 0.00 89 1022.7
20260502040148 10 317 9.7 11.3 0.00 0.00 0.00 88 1022.7
20260502040048 10 317 8.0 11.3 0.00 0.00 0.00 88 1022.7
20260502040010 10 318 8.0 11.3 0.00 0.00 0.00 88 1022.7
20260502035848 11 317 8.0 11.3 0.00 0.00 0.00 88 1022.7
20260502035748 11 317 8.0 11.3 0.00 0.00 0.00 88 1022.7
20260502035648 11 316 8.0 9.7 0.00 0.00 0.00 88 1022.7
20260502035548 11 316 8.0 11.3 0.00 0.00 0.00 88 1022.7
20260502035448 11 315 8.0 11.3 0.00 0.00 0.00 88 1022.7
20260502035348 11 315 8.0 11.3 0.00 0.00 0.00 88 1022.7
20260502035248 11 316 8.0 11.3 0.00 0.00 0.00 88 1022.7
20260502035148 11 315 8.0 11.3 0.00 0.00 0.00 88 1022.7
20260502035048 11 314 8.0 11.3 0.00 0.00 0.00 88 1022.7
20260502035009 11 314 8.0 11.3 0.00 0.00 0.00 88 1022.7
20260502034848 11 314 8.0 11.3 0.00 0.00 0.00 88 1022.7
20260502034748 11 314 8.0 11.3 0.00 0.00 0.00 88 1022.7
20260502034648 11 314 8.0 11.3 0.00 0.00 0.00 88 1022.7
20260502034548 11 314 8.0 11.3 0.00 0.00 0.00 88 1022.7
20260502034448 11 314 8.0 12.9 0.00 0.00 0.00 88 1022.7
20260502034348 11 313 8.0 12.9 0.00 0.00 0.00 88 1022.7
20260502034309 11 312 8.0 12.9 0.00 0.00 0.00 88 1022.7
20260502034148 11 311 8.0 12.9 0.00 0.00 0.00 88 1022.7
20260502034049 11 311 9.7 14.5 0.00 0.00 0.00 88 1022.7
20260502033948 11 311 9.7 14.5 0.00 0.00 0.00 88 1022.7
20260502033849 11 310 9.7 14.5 0.00 0.00 0.00 88 1022.7
20260502033749 11 309 11.3 14.5 0.00 0.00 0.00 88 1022.7
20260502033649 11 308 11.3 16.1 0.00 0.00 0.00 88 1022.7
20260502033548 11 307 11.3 16.1 0.00 0.00 0.00 88 1022.7
20260502033448 11 307 11.3 16.1 0.00 0.00 0.00 88 1022.7
20260502033348 11 306 11.3 16.1 0.00 0.00 0.00 88 1022.7
20260502033248 11 306 12.9 16.1 0.00 0.00 0.00 88 1022.7
20260502033148 11 306 12.9 16.1 0.00 0.00 0.00 88 1022.7
20260502033051 11 307 12.9 16.1 0.00 0.00 0.00 88 1022.7
20260502032948 11 307 12.9 16.1 0.00 0.00 0.00 88 1022.7
20260502032848 11 307 12.9 16.1 0.00 0.00 0.00 88 1022.7
20260502032809 11 307 12.9 16.1 0.00 0.00 0.00 88 1022.7
20260502032649 11 307 12.9 16.1 0.00 0.00 0.00 88 1022.7
20260502032549 11 307 12.9 16.1 0.00 0.00 0.00 88 1022.7
20260502032448 11 307 12.9 16.1 0.00 0.00 0.00 88 1022.7
20260502032349 11 307 12.9 16.1 0.00 0.00 0.00 88 1022.7
20260502032249 11 307 12.9 16.1 0.00 0.00 0.00 88 1022.7
20260502032149 11 307 12.9 16.1 0.00 0.00 0.00 88 1022.7
20260502032049 11 306 12.9 16.1 0.00 0.00 0.00 88 1022.7
20260502031948 11 306 12.9 16.1 0.00 0.00 0.00 88 1022.7
20260502031848 11 306 12.9 16.1 0.00 0.00 0.00 88 1022.7
20260502031810 11 306 12.9 16.1 0.00 0.00 0.00 88 1022.7
20260502031648 11 307 12.9 16.1 0.00 0.00 0.00 88 1022.7
20260502031549 11 307 12.9 16.1 0.00 0.00 0.00 88 1022.7
20260502031448 11 307 12.9 17.7 0.00 0.00 0.00 88 1022.7
20260502031348 11 307 12.9 17.7 0.00 0.00 0.00 89 1022.7
20260502031248 11 307 12.9 17.7 0.00 0.00 0.00 89 1022.7
20260502031150 11 307 12.9 17.7 0.00 0.00 0.00 89 1022.7
20260502031048 11 307 12.9 17.7 0.00 0.00 0.00 89 1022.7
20260502030948 11 306 12.9 17.7 0.00 0.00 0.00 89 1022.7
20260502030848 11 305 12.9 17.7 0.00 0.00 0.00 89 1022.7
20260502030749 11 304 12.9 17.7 0.00 0.00 0.00 89 1022.7
20260502030709 11 303 12.9 17.7 0.00 0.00 0.00 89 1022.7
20260502030548 11 302 12.9 17.7 0.00 0.00 0.00 89 1022.7
20260502030449 11 302 12.9 17.7 0.00 0.00 0.00 89 1022.7
20260502030348 11 300 12.9 17.7 0.00 0.00 0.00 89 1022.7
20260502030249 11 299 12.9 17.7 0.00 0.00 0.00 89 1022.7
20260502030149 11 298 11.3 17.7 0.00 0.00 0.00 90 1022.7
20260502030048 11 297 11.3 17.7 0.00 0.00 0.00 90 1022.7
20260502025950 11 297 11.3 17.7 0.00 0.00 0.00 90 1022.7
20260502025848 11 297 11.3 17.7 0.00 0.00 0.00 90 1022.7
20260502025748 11 295 9.7 17.7 0.00 0.00 0.00 90 1022.7
20260502025649 11 294 9.7 14.5 0.00 0.00 0.00 90 1022.7
20260502025609 11 293 9.7 14.5 0.00 0.00 0.00 90 1022.7
20260502025450 11 291 8.0 14.5 0.00 0.00 0.00 90 1022.7
20260502025410 11 290 8.0 12.9 0.00 0.00 0.00 90 1022.7
20260502025248 11 290 8.0 12.9 0.00 0.00 0.00 90 1022.7
20260502025148 11 289 8.0 12.9 0.00 0.00 0.00 90 1022.7
20260502025109 11 288 8.0 12.9 0.00 0.00 0.00 90 1022.7
20260502024948 11 284 6.4 11.3 0.00 0.00 0.00 90 1022.7
20260502024848 11 282 6.4 9.7 0.00 0.00 0.00 90 1022.7
20260502024748 11 281 6.4 9.7 0.00 0.00 0.00 90 1022.7
20260502024648 11 282 6.4 9.7 0.00 0.00 0.00 90 1022.7
20260502024548 11 281 6.4 11.3 0.00 0.00 0.00 90 1022.7
20260502024510 11 281 6.4 11.3 0.00 0.00 0.00 90 1022.7
20260502024348 11 281 6.4 11.3 0.00 0.00 0.00 90 1022.7
20260502024248 11 279 6.4 11.3 0.00 0.00 0.00 90 1022.7
20260502024148 11 278 6.4 11.3 0.00 0.00 0.00 90 1022.7
20260502024048 11 277 6.4 11.3 0.00 0.00 0.00 89 1022.7
20260502024009 11 277 6.4 11.3 0.00 0.00 0.00 89 1022.7
20260502023909 11 278 6.4 11.3 0.00 0.00 0.00 89 1022.7
20260502023748 11 278 6.4 11.3 0.00 0.00 0.00 89 1022.7
20260502023648 11 276 6.4 11.3 0.00 0.00 0.00 89 1022.7
20260502023548 11 274 6.4 11.3 0.00 0.00 0.00 89 1022.7
20260502023448 11 273 4.8 11.3 0.00 0.00 0.00 89 1022.7
20260502023348 11 273 4.8 11.3 0.00 0.00 0.00 89 1022.7
20260502023248 11 274 4.8 11.3 0.00 0.00 0.00 89 1022.7
20260502023148 11 277 4.8 11.3 0.00 0.00 0.00 89 1022.7
20260502023048 11 279 4.8 11.3 0.00 0.00 0.00 89 1022.7
20260502022948 11 279 4.8 9.7 0.00 0.00 0.00 89 1022.7
20260502022849 11 279 4.8 9.7 0.00 0.00 0.00 89 1022.7
20260502022809 11 280 6.4 12.9 0.00 0.00 0.00 89 1022.7
20260502022648 11 283 6.4 12.9 0.00 0.00 0.00 89 1022.7
20260502022609 11 283 6.4 12.9 0.00 0.00 0.00 89 1022.7
20260502022448 11 285 6.4 12.9 0.00 0.00 0.00 89 1022.7
20260502022348 11 285 8.0 12.9 0.00 0.00 0.00 89 1022.7
20260502022248 11 285 8.0 12.9 0.00 0.00 0.00 89 1022.7
20260502022148 11 287 8.0 12.9 0.00 0.00 0.00 89 1022.7
20260502022048 11 287 8.0 14.5 0.00 0.00 0.00 89 1022.7
20260502021948 11 288 9.7 14.5 0.00 0.00 0.00 89 1022.7
20260502021848 11 289 9.7 14.5 0.00 0.00 0.00 89 1022.7
20260502021748 11 290 9.7 14.5 0.00 0.00 0.00 89 1022.7
20260502021648 11 290 9.7 14.5 0.00 0.00 0.00 89 1022.7
20260502021548 11 291 9.7 14.5 0.00 0.00 0.00 89 1022.7
20260502021448 11 291 9.7 14.5 0.00 0.00 0.00 89 1022.7
20260502021349 11 291 9.7 14.5 0.00 0.00 0.00 89 1022.7
20260502021248 11 292 11.3 14.5 0.00 0.00 0.00 89 1022.7
20260502021209 11 292 9.7 14.5 0.00 0.00 0.00 89 1022.7
20260502021048 11 292 9.7 14.5 0.00 0.00 0.00 88 1022.7
20260502020949 11 293 9.7 14.5 0.00 0.00 0.00 88 1022.7
20260502020849 11 293 11.3 14.5 0.00 0.00 0.00 88 1022.7
20260502020749 11 292 11.3 14.5 0.00 0.00 0.00 88 1022.7
20260502020649 11 292 11.3 14.5 0.00 0.00 0.00 89 1022.7
20260502020548 11 292 11.3 14.5 0.00 0.00 0.00 88 1022.7
20260502020448 11 291 9.7 14.5 0.00 0.00 0.00 88 1022.7
20260502020409 11 290 9.7 14.5 0.00 0.00 0.00 88 1022.7
20260502020248 11 288 9.7 14.5 0.00 0.00 0.00 88 1022.7
20260502020150 11 287 9.7 14.5 0.00 0.00 0.00 88 1022.7
20260502020048 11 287 8.0 14.5 0.00 0.00 0.00 88 1022.7
20260502015948 11 284 8.0 14.5 0.00 0.00 0.00 88 1022.7
20260502015849 11 283 8.0 14.5 0.00 0.00 0.00 88 1022.7
20260502015749 11 282 8.0 14.5 0.00 0.00 0.00 88 1022.7
20260502015649 11 281 8.0 11.3 0.00 0.00 0.00 88 1022.7
20260502015548 11 280 8.0 12.9 0.00 0.00 0.00 88 1022.7
20260502015449 11 281 8.0 12.9 0.00 0.00 0.00 88 1022.7
20260502015348 11 280 8.0 12.9 0.00 0.00 0.00 88 1022.7
20260502015248 11 281 8.0 12.9 0.00 0.00 0.00 88 1022.7
20260502015148 11 280 8.0 12.9 0.00 0.00 0.00 88 1022.7
20260502015048 11 278 8.0 12.9 0.00 0.00 0.00 88 1022.7
20260502014948 11 279 8.0 12.9 0.00 0.00 0.00 88 1022.7
20260502014848 11 279 8.0 12.9 0.00 0.00 0.00 88 1022.7
20260502014748 11 280 8.0 12.9 0.00 0.00 0.00 88 1022.7
20260502014649 11 278 6.4 12.9 0.00 0.00 0.00 88 1022.7
20260502014609 11 277 6.4 11.3 0.00 0.00 0.00 88 1022.7
20260502014510 11 275 6.4 11.3 0.00 0.00 0.00 88 1022.7
20260502014349 11 276 6.4 12.9 0.00 0.00 0.00 88 1022.7
20260502014248 11 275 6.4 12.9 0.00 0.00 0.00 88 1022.7
20260502014148 12 274 6.4 12.9 0.00 0.00 0.00 88 1022.7
20260502014048 11 274 6.4 12.9 0.00 0.00 0.00 88 1022.7
20260502013948 11 273 6.4 12.9 0.00 0.00 0.00 88 1022.7
20260502013848 12 273 8.0 12.9 0.00 0.00 0.00 88 1022.7
20260502013748 12 272 8.0 14.5 0.00 0.00 0.00 88 1022.7
20260502013648 12 272 8.0 14.5 0.00 0.00 0.00 88 1022.7
20260502013548 12 273 8.0 14.5 0.00 0.00 0.00 88 1022.7
20260502013448 12 276 9.7 14.5 0.00 0.00 0.00 88 1022.7
20260502013349 12 276 9.7 14.5 0.00 0.00 0.00 88 1022.7
20260502013248 12 277 9.7 14.5 0.00 0.00 0.00 88 1022.7
20260502013148 12 278 9.7 16.1 0.00 0.00 0.00 88 1022.7
20260502013109 12 278 9.7 16.1 0.00 0.00 0.00 88 1022.7
20260502013009 12 280 11.3 16.1 0.00 0.00 0.00 88 1022.7
20260502012849 12 282 11.3 17.7 0.00 0.00 0.00 88 1022.7
20260502012750 12 283 11.3 17.7 0.00 0.00 0.00 88 1022.7
20260502012648 12 285 11.3 17.7 0.00 0.00 0.00 88 1022.7
20260502012549 12 286 11.3 17.7 0.00 0.00 0.00 88 1022.7
20260502012448 12 285 11.3 17.7 0.00 0.00 0.00 87 1022.7
20260502012348 12 284 12.9 17.7 0.00 0.00 0.00 87 1022.7
20260502012248 12 285 12.9 17.7 0.00 0.00 0.00 88 1022.7
20260502012148 12 285 12.9 17.7 0.00 0.00 0.00 87 1022.7
20260502012048 12 286 12.9 17.7 0.00 0.00 0.00 87 1022.7
20260502011948 12 286 11.3 17.7 0.00 0.00 0.00 87 1022.7
20260502011848 12 287 11.3 17.7 0.00 0.00 0.00 87 1022.7
20260502011748 12 288 11.3 17.7 0.00 0.00 0.00 87 1022.7
20260502011710 12 287 11.3 17.7 0.00 0.00 0.00 87 1022.7
20260502011550 12 288 11.3 17.7 0.00 0.00 0.00 87 1022.7
20260502011449 12 288 11.3 17.7 0.00 0.00 0.00 87 1022.7
20260502011348 12 289 9.7 17.7 0.00 0.00 0.00 87 1022.7
20260502011248 12 288 9.7 17.7 0.00 0.00 0.00 87 1022.7
20260502011148 12 288 9.7 17.7 0.00 0.00 0.00 87 1022.7
20260502011049 12 287 9.7 17.7 0.00 0.00 0.00 87 1022.7
20260502010949 12 286 9.7 17.7 0.00 0.00 0.00 87 1022.7
20260502010848 12 284 9.7 17.7 0.00 0.00 0.00 87 1022.7
20260502010748 12 282 9.7 16.1 0.00 0.00 0.00 87 1022.7
20260502010648 12 281 9.7 14.5 0.00 0.00 0.00 87 1022.7
20260502010548 12 281 9.7 12.9 0.00 0.00 0.00 86 1022.7
20260502010449 12 280 9.7 16.1 0.00 0.00 0.00 87 1022.7
20260502010348 12 281 9.7 17.7 0.00 0.00 0.00 86 1022.7
20260502010248 12 281 9.7 17.7 0.00 0.00 0.00 86 1022.7
20260502010148 12 281 11.3 19.3 0.00 0.00 0.00 86 1022.7
20260502010048 12 282 11.3 19.3 0.00 0.00 0.00 86 1022.7
20260502005948 12 282 11.3 19.3 0.00 0.00 0.00 86 1022.7
20260502005910 12 283 11.3 19.3 0.00 0.00 0.00 86 1022.7
20260502005748 12 284 11.3 19.3 0.00 0.00 0.00 86 1022.7
20260502005649 12 284 12.9 19.3 0.00 0.00 0.00 86 1022.7
20260502005549 12 283 12.9 19.3 0.00 0.00 0.00 86 1022.7
20260502005448 12 283 12.9 19.3 0.00 0.00 0.00 86 1022.7
20260502005348 12 282 12.9 19.3 0.00 0.00 0.00 86 1022.7
20260502005248 12 283 11.3 19.3 0.00 0.00 0.00 86 1022.7
20260502005210 12 283 11.3 17.7 0.00 0.00 0.00 86 1022.7
20260502005048 12 284 11.3 17.7 0.00 0.00 0.00 86 1022.7
20260502004948 12 283 11.3 17.7 0.00 0.00 0.00 86 1022.7
20260502004909 12 284 11.3 17.7 0.00 0.00 0.00 86 1022.7
20260502004748 12 283 11.3 17.7 0.00 0.00 0.00 86 1022.7
20260502004649 12 282 11.3 17.7 0.00 0.00 0.00 86 1022.7
20260502004609 12 282 11.3 17.7 0.00 0.00 0.00 86 1022.7
20260502004448 12 282 11.3 17.7 0.00 0.00 0.00 86 1022.7
20260502004349 12 282 11.3 17.7 0.00 0.00 0.00 86 1022.7
20260502004248 12 281 11.3 17.7 0.00 0.00 0.00 86 1022.7
20260502004149 12 280 11.3 17.7 0.00 0.00 0.00 86 1022.7
20260502004048 12 278 9.7 16.1 0.00 0.00 0.00 86 1022.7
20260502003949 12 277 9.7 16.1 0.00 0.00 0.00 86 1022.7
20260502003910 12 276 9.7 16.1 0.00 0.00 0.00 86 1022.7
20260502003748 12 276 9.7 16.1 0.00 0.00 0.00 86 1022.7
20260502003648 12 276 9.7 16.1 0.00 0.00 0.00 86 1022.7
20260502003610 12 275 9.7 16.1 0.00 0.00 0.00 86 1022.7
20260502003448 12 272 9.7 16.1 0.00 0.00 0.00 86 1022.7
20260502003348 12 270 8.0 16.1 0.00 0.00 0.00 86 1022.7
20260502003248 12 269 8.0 16.1 0.00 0.00 0.00 86 1022.7
20260502003149 12 268 9.7 16.1 0.00 0.00 0.00 86 1022.7
20260502003048 12 268 9.7 16.1 0.00 0.00 0.00 86 1022.7
20260502003009 12 269 9.7 16.1 0.00 0.00 0.00 86 1022.7
20260502002848 12 266 9.7 14.5 0.00 0.00 0.00 86 1022.7
20260502002809 12 265 9.7 14.5 0.00 0.00 0.00 86 1022.7
20260502002649 12 266 9.7 14.5 0.00 0.00 0.00 86 1022.7
20260502002548 12 265 8.0 14.5 0.00 0.00 0.00 86 1022.7
20260502002449 12 265 8.0 12.9 0.00 0.00 0.00 86 1022.7
20260502002348 12 265 8.0 12.9 0.00 0.00 0.00 86 1022.7
20260502002248 12 264 8.0 12.9 0.00 0.00 0.00 86 1022.7
20260502002148 12 264 8.0 12.9 0.00 0.00 0.00 86 1022.7
20260502002048 12 263 8.0 12.9 0.00 0.00 0.00 86 1022.7
20260502001948 12 262 8.0 12.9 0.00 0.00 0.00 86 1022.7
20260502001849 12 263 8.0 12.9 0.00 0.00 0.00 86 1022.7
20260502001748 12 265 8.0 12.9 0.00 0.00 0.00 86 1022.7
20260502001648 12 264 8.0 12.9 0.00 0.00 0.00 86 1022.7
20260502001549 12 265 8.0 12.9 0.00 0.00 0.00 86 1022.7
20260502001448 12 267 8.0 12.9 0.00 0.00 0.00 86 1022.7
20260502001348 12 268 8.0 12.9 0.00 0.00 0.00 86 1022.7
20260502001309 12 268 8.0 12.9 0.00 0.00 0.00 86 1022.7
20260502001149 12 270 9.7 14.5 0.00 0.00 0.00 85 1022.7
20260502001110 12 272 9.7 16.1 0.00 0.00 0.00 85 1022.7
20260502001010 12 272 9.7 16.1 0.00 0.00 0.00 85 1022.7
20260502000848 12 273 9.7 16.1 0.00 0.00 0.00 85 1022.7
20260502000810 12 273 9.7 16.1 0.00 0.00 0.00 85 1022.7
20260502000709 12 273 9.7 16.1 0.00 0.00 0.00 85 1022.7
20260502000609 12 274 9.7 16.1 0.00 0.00 0.00 85 1022.7
20260502000448 12 274 9.7 16.1 0.00 0.00 0.00 85 1022.7
20260502000348 12 275 9.7 16.1 0.00 0.00 0.00 85 1022.7
20260502000248 12 274 9.7 16.1 0.00 0.00 0.00 85 1022.7
20260502000148 12 276 9.7 16.1 0.00 0.00 0.00 85 1022.7
20260502000048 12 277 9.7 16.1 0.00 0.00 0.00 85 1022.7
20260502000009 12 277 9.7 16.1 0.00 0.00 0.00 85 1022.7
20260501235848 12 277 9.7 14.5 0.00 0.00 0.00 85 1022.7
20260501235748 12 277 9.7 14.5 0.00 0.00 0.00 85 1022.7
20260501235710 12 277 9.7 14.5 0.00 0.00 0.00 85 1022.7
20260501235549 12 277 9.7 14.5 0.00 0.00 0.00 85 1022.7
20260501235449 12 277 9.7 14.5 0.00 0.00 0.00 85 1022.7
20260501235349 12 277 9.7 14.5 0.00 0.00 0.00 85 1022.7
20260501235248 12 278 9.7 14.5 0.00 0.00 0.00 85 1022.7
20260501235148 12 278 9.7 14.5 0.00 0.00 0.00 85 1022.7
20260501235048 12 277 9.7 14.5 0.00 0.00 0.00 85 1022.7
20260501234948 12 278 9.7 14.5 0.00 0.00 0.00 85 1022.7
20260501234848 12 277 9.7 16.1 0.00 0.00 0.00 85 1022.7
20260501234748 12 276 9.7 16.1 0.00 0.00 0.00 85 1022.7
20260501234649 12 277 9.7 16.1 0.00 0.00 0.00 85 1022.7
20260501234610 12 277 9.7 16.1 0.00 0.00 0.00 85 1022.7
20260501234449 13 277 9.7 16.1 0.00 0.00 0.00 85 1022.7
20260501234349 13 278 9.7 16.1 0.00 0.00 0.00 85 1022.7
20260501234249 13 276 9.7 16.1 0.00 0.00 0.00 85 1022.7
20260501234148 13 275 9.7 16.1 0.00 0.00 0.00 85 1022.7
20260501234109 13 274 9.7 16.1 0.00 0.00 0.00 85 1022.7
20260501233948 13 273 9.7 16.1 0.00 0.00 0.00 85 1022.7
20260501233849 13 275 8.0 12.9 0.00 0.00 0.00 85 1022.7
20260501233810 13 276 8.0 12.9 0.00 0.00 0.00 85 1022.7
20260501233648 13 276 8.0 12.9 0.00 0.00 0.00 84 1022.7
20260501233609 13 276 8.0 12.9 0.00 0.00 0.00 84 1022.7
20260501233510 13 276 8.0 12.9 0.00 0.00 0.00 84 1022.7
20260501233348 13 276 8.0 12.9 0.00 0.00 0.00 84 1022.7
20260501233248 13 277 9.7 12.9 0.00 0.00 0.00 84 1022.7
20260501233148 13 280 9.7 12.9 0.00 0.00 0.00 84 1022.7
20260501233048 13 281 8.0 12.9 0.00 0.00 0.00 84 1022.7
20260501232948 13 284 8.0 12.9 0.00 0.00 0.00 84 1022.7
20260501232848 13 284 8.0 12.9 0.00 0.00 0.00 84 1022.7
20260501232748 13 284 8.0 12.9 0.00 0.00 0.00 84 1022.7
20260501232649 13 285 8.0 12.9 0.00 0.00 0.00 84 1022.7
20260501232548 13 286 8.0 12.9 0.00 0.00 0.00 84 1022.7
20260501232448 13 287 8.0 12.9 0.00 0.00 0.00 84 1022.7
20260501232349 13 288 6.4 12.9 0.00 0.00 0.00 84 1022.7
20260501232248 13 290 6.4 12.9 0.00 0.00 0.00 84 1022.7
20260501232148 13 291 6.4 12.9 0.00 0.00 0.00 84 1022.7
20260501232109 13 291 6.4 12.9 0.00 0.00 0.00 84 1022.7
20260501232009 13 292 4.8 12.9 0.00 0.00 0.00 84 1022.7
20260501231849 13 295 4.8 9.7 0.00 0.00 0.00 84 1022.7
20260501231749 13 298 4.8 8.0 0.00 0.00 0.00 84 1022.7
20260501231648 13 300 4.8 8.0 0.00 0.00 0.00 84 1022.7
20260501231549 12 302 4.8 8.0 0.00 0.00 0.00 84 1022.7
20260501231450 12 304 4.8 8.0 0.00 0.00 0.00 84 1022.7
20260501231348 12 305 4.8 8.0 0.00 0.00 0.00 84 1022.7
20260501231249 12 306 4.8 8.0 0.00 0.00 0.00 83 1022.7
20260501231148 12 308 4.8 8.0 0.00 0.00 0.00 83 1022.7
20260501231048 12 308 4.8 8.0 0.00 0.00 0.00 83 1022.7
20260501230948 12 309 6.4 9.7 0.00 0.00 0.00 83 1022.7
20260501230848 12 309 6.4 9.7 0.00 0.00 0.00 83 1022.7
20260501230748 12 308 6.4 9.7 0.00 0.00 0.00 83 1022.7
20260501230648 12 308 6.4 9.7 0.00 0.00 0.00 83 1022.7
20260501230610 12 308 8.0 9.7 0.00 0.00 0.00 83 1022.7
20260501230448 13 307 8.0 9.7 0.00 0.00 0.00 83 1022.7
20260501230409 13 306 8.0 9.7 0.00 0.00 0.00 83 1022.7
20260501230250 13 305 8.0 9.7 0.00 0.00 0.00 83 1022.7
20260501230148 13 304 8.0 9.7 0.00 0.00 0.00 83 1022.7
20260501230048 13 303 8.0 9.7 0.00 0.00 0.00 82 1022.7
20260501225949 13 302 8.0 9.7 0.00 0.00 0.00 82 1022.7
20260501225848 13 301 8.0 9.7 0.00 0.00 0.00 82 1022.7
20260501225750 13 300 8.0 9.7 0.00 0.00 0.00 82 1022.7
20260501225648 13 299 8.0 9.7 0.00 0.00 0.00 82 1022.7
20260501225548 13 298 8.0 9.7 0.00 0.00 0.00 82 1022.7
20260501225448 13 296 8.0 9.7 0.00 0.00 0.00 82 1022.7
20260501225348 13 295 8.0 9.7 0.00 0.00 0.00 82 1022.7
20260501225248 13 295 8.0 9.7 0.00 0.00 0.00 82 1022.7
20260501225149 13 294 6.4 9.7 0.00 0.00 0.00 82 1022.7
20260501225050 13 293 6.4 9.7 0.00 0.00 0.00 82 1022.7
20260501224948 13 293 6.4 9.7 0.00 0.00 0.00 82 1022.7
20260501224910 13 292 6.4 9.7 0.00 0.00 0.00 82 1022.7
20260501224809 13 292 6.4 9.7 0.00 0.00 0.00 82 1022.7
20260501224648 13 293 6.4 9.7 0.00 0.00 0.00 82 1022.7
20260501224609 13 293 6.4 9.7 0.00 0.00 0.00 82 1022.7
20260501224448 13 294 6.4 9.7 0.00 0.00 0.00 82 1022.7
20260501224409 13 295 6.4 9.7 0.00 0.00 0.00 82 1022.7
20260501224248 13 296 8.0 11.3 0.00 0.00 0.00 82 1022.7
20260501224148 13 297 8.0 11.3 0.00 0.00 0.00 82 1022.7
20260501224048 13 298 8.0 11.3 0.00 0.00 0.00 82 1022.7
20260501223949 13 299 8.0 11.3 0.00 0.00 0.00 82 1022.7
20260501223848 13 300 8.0 11.3 0.00 0.00 0.00 82 1022.7
20260501223810 13 300 8.0 11.3 0.00 0.00 0.00 82 1022.7
20260501223648 13 301 8.0 11.3 0.00 0.00 0.00 82 1022.7
20260501223548 13 301 8.0 11.3 0.00 0.00 0.00 81 1022.7
20260501223448 13 300 8.0 11.3 0.00 0.00 0.00 81 1022.7
20260501223348 13 299 8.0 11.3 0.00 0.00 0.00 81 1022.7
20260501223249 13 299 8.0 12.9 0.00 0.00 0.00 81 1022.7
20260501223210 13 299 9.7 12.9 0.00 0.00 0.00 81 1022.7
20260501223048 13 299 9.7 12.9 0.00 0.00 0.00 81 1022.7
20260501222948 13 298 9.7 12.9 0.00 0.00 0.00 81 1022.7
20260501222849 13 298 9.7 12.9 0.00 0.00 0.00 81 1022.7
20260501222748 13 297 9.7 12.9 0.00 0.00 0.00 81 1022.7
20260501222709 13 297 9.7 12.9 0.00 0.00 0.00 81 1022.7
20260501222548 13 298 9.7 12.9 0.00 0.00 0.00 81 1022.7
20260501222449 13 299 9.7 12.9 0.00 0.00 0.00 81 1022.7
20260501222348 13 301 9.7 12.9 0.00 0.00 0.00 81 1022.7
20260501222309 13 301 9.7 12.9 0.00 0.00 0.00 81 1022.7
20260501222149 13 303 9.7 14.5 0.00 0.00 0.00 81 1022.7
20260501222050 13 304 9.7 14.5 0.00 0.00 0.00 81 1022.7
20260501222009 13 305 9.7 14.5 0.00 0.00 0.00 81 1022.7
20260501221848 13 307 9.7 14.5 0.00 0.00 0.00 81 1022.7
20260501221749 13 309 9.7 14.5 0.00 0.00 0.00 81 1022.7
20260501221648 13 311 9.7 14.5 0.00 0.00 0.00 81 1022.7
20260501221548 13 313 9.7 14.5 0.00 0.00 0.00 80 1022.7
20260501221449 13 315 9.7 14.5 0.00 0.00 0.00 80 1022.7
20260501221409 13 315 9.7 14.5 0.00 0.00 0.00 80 1022.7
20260501221248 13 317 9.7 14.5 0.00 0.00 0.00 80 1022.7
20260501221149 13 318 9.7 12.9 0.00 0.00 0.00 80 1022.7
20260501221048 13 319 9.7 12.9 0.00 0.00 0.00 80 1022.7
20260501220949 13 320 9.7 12.9 0.00 0.00 0.00 81 1022.7
20260501220849 13 320 9.7 12.9 0.00 0.00 0.00 81 1022.7
20260501220748 13 319 9.7 12.9 0.00 0.00 0.00 81 1022.7
20260501220710 13 318 9.7 12.9 0.00 0.00 0.00 81 1022.7
20260501220548 13 317 8.0 11.3 0.00 0.00 0.00 81 1022.7
20260501220448 13 316 8.0 11.3 0.00 0.00 0.00 81 1022.7
20260501220350 13 313 8.0 11.3 0.00 0.00 0.00 81 1022.7
20260501220250 13 311 8.0 11.3 0.00 0.00 0.00 81 1022.7
20260501220209 13 310 8.0 11.3 0.00 0.00 0.00 81 1022.7
20260501220049 13 308 8.0 11.3 0.00 0.00 0.00 81 1022.7
20260501215949 13 307 8.0 11.3 0.00 0.00 0.00 81 1022.7
20260501215848 13 307 8.0 11.3 0.00 0.00 0.00 81 1022.7
20260501215810 13 307 8.0 11.3 0.00 0.00 0.00 81 1022.7
20260501215649 13 308 8.0 11.3 0.00 0.00 0.00 81 1022.7
20260501215609 13 307 8.0 9.7 0.00 0.00 0.00 81 1022.7
20260501215449 13 308 8.0 9.7 0.00 0.00 0.00 81 1022.7
20260501215348 13 309 8.0 9.7 0.00 0.00 0.00 81 1022.7
20260501215248 13 310 8.0 9.7 0.00 0.00 0.00 81 1022.7
20260501215149 13 312 8.0 9.7 0.00 0.00 0.00 81 1022.7
20260501215049 13 314 8.0 9.7 0.00 0.00 0.00 81 1022.7
20260501214950 13 316 8.0 9.7 0.00 0.00 0.00 80 1022.7
20260501214849 13 317 8.0 9.7 0.00 0.00 0.00 80 1022.7
20260501214809 13 319 8.0 9.7 0.00 0.00 0.00 80 1022.7
20260501214709 13 320 8.0 9.7 0.00 0.00 0.00 80 1022.7
20260501214548 13 322 8.0 11.3 0.00 0.00 0.00 80 1022.7
20260501214449 13 322 8.0 11.3 0.00 0.00 0.00 80 1022.7
20260501214348 13 322 8.0 11.3 0.00 0.00 0.00 80 1022.7
20260501214248 13 321 8.0 11.3 0.00 0.00 0.00 80 1022.7
20260501214148 13 320 9.7 11.3 0.00 0.00 0.00 80 1022.7
20260501214048 13 319 9.7 12.9 0.00 0.00 0.00 80 1022.7
20260501213949 13 317 9.7 12.9 0.00 0.00 0.00 80 1022.7
20260501213848 13 315 9.7 12.9 0.00 0.00 0.00 80 1022.7
20260501213751 13 314 9.7 12.9 0.00 0.00 0.00 79 1022.7
20260501213648 13 312 9.7 12.9 0.00 0.00 0.00 79 1022.7
20260501213548 13 311 9.7 12.9 0.00 0.00 0.00 79 1022.7
20260501213448 13 310 9.7 12.9 0.00 0.00 0.00 79 1022.7
20260501213348 14 310 9.7 12.9 0.00 0.00 0.00 79 1022.7
20260501213248 14 312 9.7 12.9 0.00 0.00 0.00 79 1022.7
20260501213148 14 312 9.7 12.9 0.00 0.00 0.00 78 1022.7
20260501213048 14 313 8.0 12.9 0.00 0.00 0.00 78 1022.7
20260501213009 14 314 9.7 12.9 0.00 0.00 0.00 78 1022.7
20260501212849 14 316 8.0 12.9 0.00 0.00 0.00 78 1022.7
20260501212748 14 318 8.0 12.9 0.00 0.00 0.00 78 1022.7
20260501212649 14 319 8.0 12.9 0.00 0.00 0.00 78 1022.7
20260501212548 14 321 8.0 12.9 0.00 0.00 0.00 78 1022.7
20260501212448 14 323 8.0 12.9 0.00 0.00 0.00 78 1022.7
20260501212348 14 323 9.7 12.9 0.00 0.00 0.00 77 1022.7
20260501212248 14 322 9.7 12.9 0.00 0.00 0.00 77 1022.7
20260501212149 14 322 9.7 12.9 0.00 0.00 0.00 77 1022.7
20260501212049 14 322 9.7 12.9 0.00 0.00 0.00 77 1022.7
20260501212010 14 321 9.7 12.9 0.00 0.00 0.00 77 1022.7
20260501211910 14 321 9.7 12.9 0.00 0.00 0.00 77 1022.7
20260501211810 15 320 9.7 12.9 0.00 0.00 0.00 77 1022.7
20260501211648 15 318 9.7 12.9 0.00 0.00 0.00 77 1022.7
20260501211610 15 317 9.7 12.9 0.00 0.00 0.00 77 1022.7
20260501211449 15 316 8.0 12.9 0.00 0.00 0.00 76 1022.7
20260501211350 15 315 8.0 12.9 0.00 0.00 0.00 76 1022.7
20260501211249 15 315 8.0 11.3 0.00 0.00 0.00 76 1022.7
20260501211149 15 315 8.0 12.9 0.00 0.00 0.00 76 1022.7
20260501211049 15 315 8.0 12.9 0.00 0.00 0.00 76 1022.7
20260501210948 15 315 9.7 12.9 0.00 0.00 0.00 76 1022.7
20260501210850 15 315 9.7 12.9 0.00 0.00 0.00 76 1022.7
20260501210749 15 314 9.7 12.9 0.00 0.00 0.00 75 1022.7
20260501210649 15 314 9.7 14.5 0.00 0.00 0.00 75 1022.7
20260501210549 15 315 11.3 14.5 0.00 0.00 0.00 75 1022.7
20260501210448 15 316 11.3 19.3 0.00 0.00 0.00 75 1022.7
20260501210349 15 317 11.3 19.3 0.00 0.00 0.00 75 1022.7
20260501210250 15 318 12.9 19.3 0.00 0.00 0.00 75 1022.7
20260501210149 15 318 12.9 19.3 0.00 0.00 0.00 75 1022.7
20260501210110 15 319 12.9 19.3 0.00 0.00 0.00 75 1022.7
20260501205948 15 320 12.9 19.3 0.00 0.00 0.00 75 1022.7
20260501205849 15 320 12.9 19.3 0.00 0.00 0.00 75 1022.7
20260501205749 15 320 12.9 19.3 0.00 0.00 0.00 75 1022.7
20260501205649 15 321 12.9 19.3 0.00 0.00 0.00 75 1022.7
20260501205548 15 321 11.3 19.3 0.00 0.00 0.00 75 1022.7
20260501205448 15 321 11.3 17.7 0.00 0.00 0.00 75 1022.7
20260501205349 15 321 11.3 16.1 0.00 0.00 0.00 75 1022.7
20260501205248 15 321 11.3 16.1 0.00 0.00 0.00 75 1022.7
20260501205149 15 321 11.3 16.1 0.00 0.00 0.00 75 1022.7
20260501205048 15 321 11.3 16.1 0.00 0.00 0.00 75 1022.7
20260501205010 15 321 11.3 16.1 0.00 0.00 0.00 75 1022.7
20260501204849 15 321 11.3 19.3 0.00 0.00 0.00 75 1022.7
20260501204750 15 322 11.3 19.3 0.00 0.00 0.00 75 1022.7
20260501204648 15 322 11.3 19.3 0.00 0.00 0.00 75 1022.7
20260501204609 15 321 11.3 19.3 0.00 0.00 0.00 75 1022.7
20260501204448 15 322 11.3 19.3 0.00 0.00 0.00 74 1022.7
20260501204348 15 321 11.3 19.3 0.00 0.00 0.00 74 1022.7
20260501204249 15 321 11.3 19.3 0.00 0.00 0.00 74 1022.7
20260501204148 15 323 12.9 19.3 0.00 0.00 0.00 74 1022.7
20260501204049 15 325 12.9 19.3 0.00 0.00 0.00 74 1022.7
20260501203948 15 327 12.9 19.3 0.00 0.00 0.00 74 1022.7
20260501203850 16 328 12.9 19.3 0.00 0.00 0.00 74 1022.7
20260501203809 16 329 14.5 19.3 0.00 0.00 0.00 74 1022.7
20260501203709 16 331 12.9 19.3 0.00 0.00 0.00 74 1022.7
20260501203548 16 332 12.9 19.3 0.00 0.00 0.00 74 1022.7
20260501203448 16 332 12.9 19.3 0.00 0.00 0.00 74 1022.7
20260501203348 16 332 12.9 19.3 0.00 0.00 0.00 74 1022.7
20260501203310 16 332 12.9 19.3 0.00 0.00 0.00 74 1022.7
20260501203210 16 332 12.9 19.3 0.00 0.00 0.00 74 1022.7
20260501203109 16 330 11.3 19.3 0.00 0.00 0.00 74 1022.7
20260501203009 16 329 11.3 19.3 0.00 0.00 0.00 74 1022.7
20260501202849 16 327 11.3 19.3 0.00 0.00 0.00 74 1022.7
20260501202749 16 326 11.3 16.1 0.00 0.00 0.00 74 1022.7
20260501202649 16 324 11.3 16.1 0.00 0.00 0.00 74 1022.7
20260501202609 16 323 11.3 16.1 0.00 0.00 0.00 74 1022.7
20260501202449 16 324 11.3 16.1 0.00 0.00 0.00 74 1022.7
20260501202348 16 324 11.3 16.1 0.00 0.00 0.00 73 1022.7
20260501202248 16 323 11.3 16.1 0.00 0.00 0.00 73 1022.7
20260501202148 16 322 11.3 16.1 0.00 0.00 0.00 73 1022.7
20260501202048 16 320 11.3 19.3 0.00 0.00 0.00 73 1022.7
20260501201949 16 318 12.9 19.3 0.00 0.00 0.00 73 1022.7
20260501201848 16 317 12.9 19.3 0.00 0.00 0.00 73 1022.7
20260501201750 16 317 12.9 20.9 0.00 0.00 0.00 74 1022.7
20260501201709 16 317 14.5 20.9 0.00 0.00 0.00 74 1022.7
20260501201609 16 318 14.5 20.9 0.00 0.00 0.00 74 1022.7
20260501201448 16 317 14.5 20.9 0.00 0.00 0.00 74 1022.7
20260501201348 16 318 14.5 20.9 0.00 0.00 0.00 74 1022.7
20260501201249 16 319 16.1 20.9 0.00 0.00 0.00 74 1022.7
20260501201149 16 319 16.1 20.9 0.00 0.00 0.00 75 1022.7
20260501201049 16 320 14.5 20.9 0.00 0.00 0.00 75 1022.7
20260501200948 16 321 12.9 20.9 0.00 0.00 0.00 75 1022.7
20260501200849 16 321 11.3 20.9 0.00 0.00 0.00 74 1022.7
20260501200749 16 323 9.7 20.9 0.00 0.00 0.00 74 1022.7
20260501200648 16 326 9.7 20.9 0.00 0.00 0.00 74 1022.7
20260501200548 16 331 8.0 19.3 0.00 0.00 0.00 73 1022.7
20260501200450 16 343 6.4 19.3 0.00 0.00 0.00 72 1022.7
20260501200348 16 3 6.4 19.3 0.00 0.00 0.00 72 1022.7
20260501200249 16 29 4.8 19.3 0.00 0.00 0.00 72 1022.7
20260501200149 16 69 4.8 19.3 0.00 0.00 0.00 72 1022.7
20260501200050 16 85 3.2 8.0 0.00 0.00 0.00 72 1022.7
20260501195949 16 85 4.8 8.0 0.00 0.00 0.00 72 1022.7
20260501195910 16 85 4.8 8.0 0.00 0.00 0.00 72 1022.7
20260501195809 16 85 4.8 8.0 0.00 0.00 0.00 72 1022.7
20260501195650 16 85 4.8 8.0 0.00 0.00 0.00 72 1022.7
20260501195549 16 85 4.8 8.0 0.00 0.00 0.00 72 1022.7
20260501195449 16 85 4.8 8.0 0.00 0.00 0.00 72 1022.7
20260501195411 16 85 4.8 8.0 0.00 0.00 0.00 72 1022.7
20260501195248 16 85 4.8 8.0 0.00 0.00 0.00 72 1022.7
20260501195148 16 85 4.8 8.0 0.00 0.00 0.00 72 1022.7
20260501195049 16 85 4.8 8.0 0.00 0.00 0.00 72 1022.7
20260501194948 16 85 4.8 8.0 0.00 0.00 0.00 72 1022.7
20260501194850 16 85 4.8 8.0 0.00 0.00 0.00 72 1022.7
20260501194809 16 85 4.8 8.0 0.00 0.00 0.00 72 1022.7
20260501194649 16 85 4.8 8.0 0.00 0.00 0.00 72 1022.7
20260501194549 16 85 4.8 8.0 0.00 0.00 0.00 72 1022.7
20260501194511 16 85 3.2 8.0 0.00 0.00 0.00 72 1022.7
20260501194349 16 85 3.2 8.0 0.00 0.00 0.00 71 1022.7
20260501194249 16 85 3.2 8.0 0.00 0.00 0.00 71 1022.7
20260501194149 16 85 3.2 8.0 0.00 0.00 0.00 71 1022.7
20260501194049 16 85 3.2 6.4 0.00 0.00 0.00 71 1022.7
20260501193949 16 85 3.2 6.4 0.00 0.00 0.00 71 1022.7
20260501193910 16 85 1.6 6.4 0.00 0.00 0.00 71 1022.7
20260501193749 16 85 1.6 6.4 0.00 0.00 0.00 71 1022.7
20260501193649 16 85 1.6 6.4 0.00 0.00 0.00 71 1022.7
20260501193549 16 85 3.2 6.4 0.00 0.00 0.00 71 1022.7
20260501193448 16 85 3.2 6.4 0.00 0.00 0.00 71 1022.7
20260501193350 16 85 3.2 6.4 0.00 0.00 0.00 70 1022.7
20260501193248 16 85 3.2 6.4 0.00 0.00 0.00 70 1022.7
20260501193148 16 85 3.2 6.4 0.00 0.00 0.00 70 1022.7
20260501193049 16 85 3.2 6.4 0.00 0.00 0.00 70 1022.7
20260501192950 16 85 3.2 8.0 0.00 0.00 0.00 70 1022.7
20260501192849 16 85 4.8 8.0 0.00 0.00 0.00 70 1022.7
20260501192748 16 85 4.8 8.0 0.00 0.00 0.00 70 1022.7
20260501192648 16 85 4.8 8.0 0.00 0.00 0.00 70 1022.7
20260501192548 16 85 4.8 8.0 0.00 0.00 0.00 70 1022.7
20260501192510 17 85 4.8 8.0 0.00 0.00 0.00 70 1022.7
20260501192348 17 85 4.8 8.0 0.00 0.00 0.00 69 1022.7
20260501192249 17 85 4.8 8.0 0.00 0.00 0.00 69 1022.7
20260501192149 17 85 6.4 8.0 0.00 0.00 0.00 69 1022.7
20260501192049 17 85 6.4 8.0 0.00 0.00 0.00 69 1022.7
20260501191948 17 85 6.4 8.0 0.00 0.00 0.00 69 1022.7
20260501191848 17 85 6.4 8.0 0.00 0.00 0.00 69 1022.7
20260501191748 17 85 6.4 8.0 0.00 0.00 0.00 69 1022.7
20260501191649 17 85 6.4 8.0 0.00 0.00 0.00 69 1022.7
20260501191549 17 85 6.4 8.0 0.00 0.00 0.00 69 1022.7
20260501191448 17 85 6.4 8.0 0.00 0.00 0.00 69 1022.7
20260501191349 17 85 6.4 9.7 0.00 0.00 0.00 69 1022.7
20260501191249 17 85 6.4 9.7 0.00 0.00 0.00 68 1022.7
20260501191150 17 84 6.4 9.7 0.00 0.00 0.00 68 1022.7
20260501191049 17 84 6.4 9.7 0.00 0.00 0.00 68 1022.7
20260501190948 17 84 6.4 9.7 0.00 0.00 0.00 68 1022.7
20260501190849 17 83 6.4 9.7 0.00 0.00 0.00 68 1022.7
20260501190749 17 83 6.4 9.7 0.00 0.00 0.00 68 1022.7
20260501190648 17 83 6.4 9.7 0.00 0.00 0.00 68 1022.7
20260501190550 17 82 6.4 9.7 0.00 0.00 0.00 68 1022.7
20260501190448 17 82 6.4 9.7 0.00 0.00 0.00 68 1022.7
20260501190348 17 82 6.4 9.7 0.00 0.00 0.00 68 1022.7
20260501190248 17 81 6.4 9.7 0.00 0.00 0.00 68 1022.7
20260501190149 17 81 6.4 9.7 0.00 0.00 0.00 68 1022.7
20260501190110 17 80 6.4 9.7 0.00 0.00 0.00 68 1022.7
20260501185950 17 79 6.4 9.7 0.00 0.00 0.00 68 1022.7
20260501185849 17 77 6.4 9.7 0.00 0.00 0.00 68 1022.7
20260501185748 17 76 6.4 9.7 0.00 0.00 0.00 68 1022.7
20260501185711 17 75 6.4 9.7 0.00 0.00 0.00 68 1022.7
20260501185548 17 72 6.4 9.7 0.00 0.00 0.00 68 1022.7
20260501185450 17 70 6.4 9.7 0.00 0.00 0.00 68 1022.7
20260501185350 17 67 6.4 9.7 0.00 0.00 0.00 68 1022.7
20260501185310 17 66 6.4 9.7 0.00 0.00 0.00 68 1022.7
20260501185149 17 63 6.4 9.7 0.00 0.00 0.00 68 1022.7
20260501185048 17 62 6.4 9.7 0.00 0.00 0.00 68 1022.7
20260501184949 17 61 6.4 9.7 0.00 0.00 0.00 68 1022.7
20260501184850 17 60 6.4 9.7 0.00 0.00 0.00 67 1022.7
20260501184748 17 60 6.4 9.7 0.00 0.00 0.00 67 1022.7
20260501184649 17 60 6.4 9.7 0.00 0.00 0.00 67 1022.7
20260501184549 17 60 6.4 9.7 0.00 0.00 0.00 67 1022.7
20260501184448 17 59 6.4 11.3 0.00 0.00 0.00 67 1022.7
20260501184349 17 59 6.4 11.3 0.00 0.00 0.00 67 1022.7
20260501184250 17 59 6.4 11.3 0.00 0.00 0.00 67 1022.7
20260501184149 18 58 6.4 11.3 0.00 0.00 0.00 66 1022.7
20260501184049 18 58 6.4 11.3 0.00 0.00 0.00 66 1022.7
20260501184010 18 58 6.4 11.3 0.00 0.00 0.00 66 1022.7
20260501183848 18 57 6.4 11.3 0.00 0.00 0.00 66 1022.7
20260501183748 18 57 6.4 11.3 0.00 0.00 0.00 66 1022.7
20260501183710 18 56 6.4 11.3 0.00 0.00 0.00 66 1022.7
20260501183549 18 56 6.4 11.3 0.00 0.00 0.00 65 1022.7
20260501183448 18 57 6.4 11.3 0.00 0.00 0.00 65 1022.7
20260501183348 18 57 6.4 11.3 0.00 0.00 0.00 65 1022.7
20260501183311 18 57 6.4 9.7 0.00 0.00 0.00 65 1022.7
20260501183149 18 57 6.4 9.7 0.00 0.00 0.00 65 1022.7
20260501183048 18 57 6.4 9.7 0.00 0.00 0.00 65 1022.7
20260501182949 18 57 6.4 9.7 0.00 0.00 0.00 65 1022.7
20260501182848 18 57 6.4 9.7 0.00 0.00 0.00 65 1022.7
20260501182810 18 57 6.4 9.7 0.00 0.00 0.00 65 1022.7
20260501182649 18 57 6.4 9.7 0.00 0.00 0.00 65 1022.7
20260501182609 18 58 6.4 9.7 0.00 0.00 0.00 65 1022.7
20260501182449 18 57 6.4 9.7 0.00 0.00 0.00 64 1022.7
20260501182349 18 57 6.4 11.3 0.00 0.00 0.00 64 1022.7
20260501182310 18 57 6.4 11.3 0.00 0.00 0.00 64 1022.7
20260501182148 18 57 6.4 11.3 0.00 0.00 0.00 64 1022.7
20260501182049 18 57 6.4 11.3 0.00 0.00 0.00 64 1022.7
20260501182009 18 57 6.4 11.3 0.00 0.00 0.00 64 1022.7
20260501181849 19 57 6.4 11.3 0.00 0.00 0.00 64 1022.7
20260501181748 19 58 6.4 11.3 0.00 0.00 0.00 64 1022.7
20260501181649 19 57 6.4 11.3 0.00 0.00 0.00 63 1022.7
20260501181549 19 57 6.4 11.3 0.00 0.00 0.00 63 1022.7
20260501181449 19 58 6.4 11.3 0.00 0.00 0.00 63 1022.7
20260501181348 19 58 6.4 11.3 0.00 0.00 0.00 63 1022.7
20260501181311 19 58 6.4 11.3 0.00 0.00 0.00 63 1022.7
20260501181149 19 58 6.4 12.9 0.00 0.00 0.00 63 1022.7
20260501181049 19 57 8.0 12.9 0.00 0.00 0.00 63 1022.7
20260501180948 20 57 8.0 12.9 0.00 0.00 0.00 62 1022.7
20260501180850 20 56 8.0 12.9 0.00 0.00 0.00 62 1022.7
20260501180750 20 54 8.0 12.9 0.00 0.00 0.00 62 1022.7
20260501180710 20 53 8.0 12.9 0.00 0.00 0.00 62 1022.7
20260501180548 20 51 8.0 14.5 0.00 0.00 0.00 61 1022.7
20260501180448 20 50 9.7 14.5 0.00 0.00 0.00 61 1022.7
20260501180350 20 49 9.7 14.5 0.00 0.00 0.00 60 1022.7
20260501180248 20 48 9.7 14.5 0.00 0.00 0.00 60 1022.7
20260501180148 20 47 9.7 14.5 0.00 0.00 0.00 60 1022.7
20260501180049 20 48 9.7 14.5 0.00 0.00 0.00 60 1022.7
20260501180010 20 50 8.0 14.5 0.00 0.00 0.00 60 1022.7
20260501175849 20 52 8.0 14.5 0.00 0.00 0.00 59 1022.7
20260501175749 20 56 8.0 14.5 0.00 0.00 0.00 58 1022.7
20260501175649 21 60 8.0 14.5 0.00 0.00 0.00 58 1022.7
20260501175549 21 64 6.4 11.3 0.00 0.00 0.00 58 1022.7
20260501175448 21 67 6.4 11.3 0.00 0.00 0.00 57 1022.7
20260501175349 21 76 6.4 11.3 0.00 0.00 0.00 56 1022.7
20260501175248 21 95 6.4 11.3 0.00 0.00 0.00 56 1022.7
20260501175148 21 141 6.4 11.3 0.00 0.00 0.00 55 1022.7
20260501175049 21 171 6.4 11.3 0.00 0.00 0.00 55 1022.7
20260501174949 22 188 6.4 11.3 0.00 0.00 0.00 54 1022.7
20260501174849 22 196 6.4 11.3 0.00 0.00 0.00 54 1022.7
20260501174810 22 202 6.4 11.3 0.00 0.00 0.00 54 1022.7
20260501174649 22 209 6.4 11.3 0.00 0.00 0.00 50 1022.7
20260501174610 22 210 8.0 11.3 0.00 0.00 0.00 50 1022.7
20260501174448 22 212 8.0 12.9 0.00 0.00 0.00 51 1022.7
20260501174351 22 214 9.7 12.9 0.00 0.00 0.00 51 1022.7
20260501174310 22 215 9.7 12.9 0.00 0.00 0.00 51 1022.7
20260501174149 22 216 9.7 12.9 0.00 0.00 0.00 51 1022.7
20260501174048 22 217 9.7 12.9 0.00 0.00 0.00 51 1022.7
20260501173948 22 218 9.7 14.5 0.00 0.00 0.00 51 1022.7
20260501173851 22 219 9.7 14.5 0.00 0.00 0.00 51 1022.7
20260501173748 22 221 11.3 17.7 0.00 0.00 0.00 51 1022.7
20260501173649 22 222 11.3 17.7 0.00 0.00 0.00 51 1022.7
20260501173549 22 222 11.3 17.7 0.00 0.00 0.00 51 1022.7
20260501173448 22 220 11.3 17.7 0.00 0.00 0.00 51 1022.7
20260501173349 22 217 11.3 17.7 0.00 0.00 0.00 52 1022.7
20260501173249 22 216 11.3 17.7 0.00 0.00 0.00 52 1022.7
20260501173148 22 214 11.3 17.7 0.00 0.00 0.00 51 1022.7
20260501173110 22 212 11.3 17.7 0.00 0.00 0.00 51 1022.7
20260501172948 22 209 11.3 17.7 0.00 0.00 0.00 50 1022.7
20260501172849 22 208 11.3 17.7 0.00 0.00 0.00 50 1022.7
20260501172749 22 205 11.3 16.1 0.00 0.00 0.00 50 1022.7
20260501172648 22 203 11.3 16.1 0.00 0.00 0.00 50 1022.7
20260501172550 22 202 11.3 16.1 0.00 0.00 0.00 50 1022.7
20260501172349 22 201 11.3 17.7 0.00 0.00 0.00 48 1022.7
20260501172148 22 198 11.3 17.7 0.00 0.00 0.00 51 1022.7
20260501172049 22 199 11.3 17.7 0.00 0.00 0.00 50 1022.7
20260501171948 22 198 11.3 17.7 0.00 0.00 0.00 50 1022.7
20260501171849 22 197 11.3 17.7 0.00 0.00 0.00 49 1022.7
20260501171750 22 196 11.3 17.7 0.00 0.00 0.00 49 1022.7
20260501171648 22 194 11.3 17.7 0.00 0.00 0.00 47 1022.7
20260501171549 22 192 9.7 17.7 0.00 0.00 0.00 46 1022.7
20260501171450 22 189 9.7 16.1 0.00 0.00 0.00 46 1022.7
20260501171350 23 188 9.7 16.1 0.00 0.00 0.00 47 1022.7
20260501171249 23 189 9.7 14.5 0.00 0.00 0.00 48 1022.7
20260501171150 23 188 9.7 16.1 0.00 0.00 0.00 48 1022.7
20260501171048 23 187 9.7 17.7 0.00 0.00 0.00 48 1022.7
20260501170948 23 185 9.7 17.7 0.00 0.00 0.00 47 1022.7
20260501170848 23 186 11.3 17.7 0.00 0.00 0.00 47 1022.7
20260501170749 23 187 11.3 19.3 0.00 0.00 0.00 46 1022.7
20260501170710 23 187 11.3 19.3 0.00 0.00 0.00 46 1022.7
20260501170550 23 187 11.3 19.3 0.00 0.00 0.00 45 1022.7
20260501170448 23 188 11.3 19.3 0.00 0.00 0.00 45 1022.7
20260501170411 23 189 11.3 19.3 0.00 0.00 0.00 45 1022.7
20260501170248 23 190 11.3 19.3 0.00 0.00 0.00 45 1022.7
20260501170149 23 193 11.3 19.3 0.00 0.00 0.00 45 1022.7
20260501170111 23 194 11.3 19.3 0.00 0.00 0.00 45 1022.7
20260501170010 23 197 12.9 19.3 0.00 0.00 0.00 46 1022.7
20260501165848 23 200 12.9 19.3 0.00 0.00 0.00 46 1022.7
20260501165750 23 201 12.9 19.3 0.00 0.00 0.00 46 1022.7
20260501165650 23 201 12.9 19.3 0.00 0.00 0.00 47 1022.7
20260501165549 23 203 12.9 19.3 0.00 0.00 0.00 47 1022.7
20260501165448 23 204 12.9 19.3 0.00 0.00 0.00 46 1022.7
20260501165349 23 203 12.9 19.3 0.00 0.00 0.00 45 1022.7
20260501165310 23 201 12.9 19.3 0.00 0.00 0.00 45 1022.7
20260501165149 23 199 12.9 19.3 0.00 0.00 0.00 45 1022.7
20260501165050 23 199 11.3 19.3 0.00 0.00 0.00 45 1022.7
20260501165010 23 198 11.3 19.3 0.00 0.00 0.00 45 1022.7
20260501164910 23 196 11.3 17.7 0.00 0.00 0.00 45 1022.7
20260501164748 23 195 11.3 17.7 0.00 0.00 0.00 46 1022.7
20260501164649 23 196 12.9 17.7 0.00 0.00 0.00 45 1022.7
20260501164549 23 196 12.9 19.3 0.00 0.00 0.00 44 1022.7
20260501164449 23 195 12.9 19.3 0.00 0.00 0.00 43 1022.7
20260501164349 23 197 12.9 19.3 0.00 0.00 0.00 45 1022.7
20260501164248 23 200 12.9 19.3 0.00 0.00 0.00 45 1022.7
20260501164209 23 201 12.9 19.3 0.00 0.00 0.00 45 1022.7
20260501164110 23 202 12.9 19.3 0.00 0.00 0.00 44 1022.7
20260501163950 23 203 14.5 19.3 0.00 0.00 0.00 45 1022.7
20260501163850 23 203 14.5 19.3 0.00 0.00 0.00 44 1022.7
20260501163748 23 202 14.5 19.3 0.00 0.00 0.00 44 1022.7
20260501163648 23 200 14.5 22.5 0.00 0.00 0.00 45 1022.7
20260501163549 23 199 12.9 22.5 0.00 0.00 0.00 45 1022.7
20260501163449 23 199 14.5 22.5 0.00 0.00 0.00 46 1022.7
20260501163350 23 197 14.5 22.5 0.00 0.00 0.00 45 1022.7
20260501163249 23 195 14.5 22.5 0.00 0.00 0.00 44 1022.7
20260501163150 23 195 14.5 22.5 0.00 0.00 0.00 44 1022.7
20260501163110 23 194 12.9 22.5 0.00 0.00 0.00 44 1022.7
20260501162948 23 193 12.9 22.5 0.00 0.00 0.00 42 1022.7
20260501162849 23 192 12.9 22.5 0.00 0.00 0.00 41 1022.7
20260501162750 23 193 12.9 22.5 0.00 0.00 0.00 42 1022.7
20260501162648 23 195 11.3 22.5 0.00 0.00 0.00 43 1022.7
20260501162549 23 195 11.3 19.3 0.00 0.00 0.00 43 1022.7
20260501162449 23 194 12.9 22.5 0.00 0.00 0.00 41 1022.7
20260501162410 23 193 12.9 22.5 0.00 0.00 0.00 41 1022.7
20260501162248 23 194 12.9 22.5 0.00 0.00 0.00 41 1022.7
20260501162149 23 193 12.9 22.5 0.00 0.00 0.00 43 1022.7
20260501162049 23 193 12.9 22.5 0.00 0.00 0.00 43 1022.7
20260501161949 23 193 11.3 22.5 0.00 0.00 0.00 43 1022.7
20260501161910 23 193 11.3 22.5 0.00 0.00 0.00 43 1022.7
20260501161749 23 193 11.3 22.5 0.00 0.00 0.00 41 1022.7
20260501161649 23 194 11.3 22.5 0.00 0.00 0.00 42 1022.7
20260501161548 23 196 11.3 22.5 0.00 0.00 0.00 42 1022.7
20260501161448 23 198 11.3 19.3 0.00 0.00 0.00 43 1022.7
20260501161348 23 202 9.7 16.1 0.00 0.00 0.00 44 1022.7
20260501161309 23 204 11.3 16.1 0.00 0.00 0.00 44 1022.7
20260501161149 23 206 11.3 19.3 0.00 0.00 0.00 43 1022.7
20260501161048 23 207 11.3 22.5 0.00 0.00 0.00 42 1022.7
20260501160949 23 208 12.9 22.5 0.00 0.00 0.00 42 1022.7
20260501160849 23 207 12.9 22.5 0.00 0.00 0.00 43 1022.7
20260501160749 23 207 12.9 22.5 0.00 0.00 0.00 43 1022.7
20260501160648 23 207 12.9 22.5 0.00 0.00 0.00 44 1022.7
20260501160548 23 209 12.9 22.5 0.00 0.00 0.00 42 1022.7
20260501160449 23 210 12.9 22.5 0.00 0.00 0.00 43 1022.7
20260501160351 23 209 12.9 22.5 0.00 0.00 0.00 43 1022.7
20260501160249 23 209 12.9 22.5 0.00 0.00 0.00 43 1022.7
20260501160149 23 208 12.9 22.5 0.00 0.00 0.00 44 1022.7
20260501160050 23 208 12.9 20.9 0.00 0.00 0.00 44 1022.7
20260501155949 23 205 14.5 20.9 0.00 0.00 0.00 42 1022.7
20260501155849 23 205 14.5 20.9 0.00 0.00 0.00 42 1022.7
20260501155748 23 203 14.5 20.9 0.00 0.00 0.00 43 1022.7
20260501155649 23 201 14.5 20.9 0.00 0.00 0.00 42 1022.7
20260501155549 23 199 14.5 20.9 0.00 0.00 0.00 43 1022.7
20260501155449 23 196 14.5 20.9 0.00 0.00 0.00 42 1022.7
20260501155410 23 193 14.5 20.9 0.00 0.00 0.00 42 1022.7
20260501155248 24 188 12.9 20.9 0.00 0.00 0.00 42 1022.7
20260501155148 24 185 11.3 19.3 0.00 0.00 0.00 41 1022.7
20260501155109 24 185 11.3 19.3 0.00 0.00 0.00 41 1022.7
20260501154949 24 184 9.7 19.3 0.00 0.00 0.00 40 1022.7
20260501154849 24 184 9.7 19.3 0.00 0.00 0.00 40 1022.7
20260501154748 24 183 9.7 19.3 0.00 0.00 0.00 42 1022.7
20260501154710 24 182 9.7 17.7 0.00 0.00 0.00 42 1022.7
20260501154548 24 179 9.7 16.1 0.00 0.00 0.00 39 1022.7
20260501154448 24 180 9.7 16.1 0.00 0.00 0.00 40 1022.7
20260501154409 24 182 9.7 16.1 0.00 0.00 0.00 40 1022.7
20260501154311 24 185 9.7 16.1 0.00 0.00 0.00 40 1022.7
20260501154210 24 189 11.3 16.1 0.00 0.00 0.00 42 1022.7
20260501154050 24 189 11.3 19.3 0.00 0.00 0.00 40 1022.7
20260501153950 24 188 12.9 19.3 0.00 0.00 0.00 39 1022.7
20260501153850 23 188 12.9 22.5 0.00 0.00 0.00 39 1022.7
20260501153749 23 190 12.9 22.5 0.00 0.00 0.00 38 1022.7
20260501153649 23 194 12.9 22.5 0.00 0.00 0.00 41 1022.7
20260501153551 23 198 12.9 22.5 0.00 0.00 0.00 41 1022.7
20260501153450 23 200 14.5 22.5 0.00 0.00 0.00 40 1022.7
20260501153350 23 199 14.5 22.5 0.00 0.00 0.00 40 1022.7
20260501153249 24 199 14.5 22.5 0.00 0.00 0.00 40 1022.7
20260501153148 23 199 14.5 22.5 0.00 0.00 0.00 40 1022.7
20260501153048 23 201 12.9 22.5 0.00 0.00 0.00 39 1022.7
20260501153010 23 202 12.9 22.5 0.00 0.00 0.00 39 1022.7
20260501152911 23 203 12.9 22.5 0.00 0.00 0.00 42 1022.7
20260501152748 23 204 12.9 19.3 0.00 0.00 0.00 42 1022.7
20260501152649 23 204 12.9 19.3 0.00 0.00 0.00 41 1022.7
20260501152549 23 203 12.9 22.5 0.00 0.00 0.00 41 1022.7
20260501152450 23 201 12.9 22.5 0.00 0.00 0.00 41 1022.7
20260501152349 23 202 11.3 22.5 0.00 0.00 0.00 41 1022.7
20260501152249 23 201 12.9 22.5 0.00 0.00 0.00 40 1022.7
20260501152148 23 200 12.9 22.5 0.00 0.00 0.00 40 1022.7
20260501152049 23 199 12.9 22.5 0.00 0.00 0.00 39 1022.7
20260501152010 23 198 14.5 22.5 0.00 0.00 0.00 39 1022.7
20260501151849 23 199 16.1 25.7 0.00 0.00 0.00 40 1022.7
20260501151749 23 199 16.1 25.7 0.00 0.00 0.00 39 1022.7
20260501151649 23 199 16.1 25.7 0.00 0.00 0.00 39 1022.7
20260501151548 23 200 16.1 25.7 0.00 0.00 0.00 40 1022.7
20260501151448 23 202 16.1 25.7 0.00 0.00 0.00 40 1022.7
20260501151348 23 203 16.1 25.7 0.00 0.00 0.00 38 1022.7
20260501151249 23 205 16.1 25.7 0.00 0.00 0.00 39 1022.7
20260501151149 23 204 16.1 25.7 0.00 0.00 0.00 40 1022.7
20260501151049 23 203 14.5 25.7 0.00 0.00 0.00 41 1022.7
20260501150950 23 202 14.5 25.7 0.00 0.00 0.00 39 1022.7
20260501150849 24 200 12.9 22.5 0.00 0.00 0.00 40 1022.7
20260501150749 24 197 12.9 20.9 0.00 0.00 0.00 41 1022.7
20260501150649 24 193 12.9 20.9 0.00 0.00 0.00 39 1022.7
20260501150610 24 192 11.3 20.9 0.00 0.00 0.00 39 1022.7
20260501150449 24 187 11.3 20.9 0.00 0.00 0.00 39 1022.7
20260501150348 24 185 11.3 17.7 0.00 0.00 0.00 38 1022.7
20260501150249 24 183 11.3 17.7 0.00 0.00 0.00 38 1022.7
20260501150148 24 182 11.3 17.7 0.00 0.00 0.00 38 1022.7
20260501150110 24 182 11.3 17.7 0.00 0.00 0.00 38 1022.7
20260501145949 24 182 11.3 17.7 0.00 0.00 0.00 38 1022.7
20260501145848 24 182 11.3 17.7 0.00 0.00 0.00 38 1022.7
20260501145749 24 182 11.3 17.7 0.00 0.00 0.00 39 1022.7
20260501145649 24 185 9.7 17.7 0.00 0.00 0.00 37 1022.7
20260501145548 24 186 9.7 17.7 0.00 0.00 0.00 37 1022.7
20260501145450 24 184 9.7 17.7 0.00 0.00 0.00 39 1022.7
20260501145349 24 180 9.7 17.7 0.00 0.00 0.00 37 1022.7